Wetterdaten: Montag, 12.12.2016
Datum Zeit Temp. A. Feuchte A. Luftdruck Regen Wind Richtung Richtung Sonnenschein ET UV Solar Taupunkt Windchill Windben Empfang
12.12.2016 00:00 5,9 C 81 % 1020,7 hPa 0,0 l/m 15,4 km/h (3 Bft) SW 232 0 min 0,000 mm 0,0 UV-I 0 W/m 2,9 C -0,0 C 19,3 km/h (3 Bft) 97,56 %
12.12.2016 00:02 5,8 C 82 % 1020,7 hPa 0,0 l/m 14,6 km/h (3 Bft) SW 217 0 min 0,000 mm 0,0 UV-I 0 W/m 3,0 C 0,2 C 19,3 km/h (3 Bft) 95,24 %
12.12.2016 00:04 5,8 C 82 % 1020,7 hPa 0,0 l/m 12,0 km/h (2 Bft) W-SW 247 0 min 0,000 mm 0,0 UV-I 0 W/m 3,0 C 1,7 C 17,7 km/h (3 Bft) 96,00 %
12.12.2016 00:06 5,7 C 83 % 1020,7 hPa 0,0 l/m 17,6 km/h (3 Bft) W 262 0 min 0,000 mm 0,0 UV-I 0 W/m 3,0 C -1,3 C 27,4 km/h (4 Bft) 95,74 %
12.12.2016 00:08 5,7 C 83 % 1020,7 hPa 0,0 l/m 16,1 km/h (3 Bft) W-SW 248 0 min 0,000 mm 0,0 UV-I 0 W/m 3,0 C -0,6 C 24,1 km/h (4 Bft) 97,14 %
12.12.2016 00:10 5,7 C 83 % 1020,7 hPa 0,0 l/m 15,3 km/h (3 Bft) W 266 0 min 0,000 mm 0,0 UV-I 0 W/m 3,0 C -0,2 C 22,5 km/h (4 Bft) 94,34 %
12.12.2016 00:12 5,7 C 83 % 1020,7 hPa 0,0 l/m 18,2 km/h (3 Bft) W 264 0 min 0,000 mm 0,0 UV-I 0 W/m 3,0 C -1,5 C 25,7 km/h (4 Bft) 92,68 %
12.12.2016 00:14 5,7 C 83 % 1020,6 hPa 0,0 l/m 15,6 km/h (3 Bft) SW 223 0 min 0,000 mm 0,0 UV-I 0 W/m 3,0 C -0,4 C 22,5 km/h (4 Bft) 98,21 %
12.12.2016 00:16 5,7 C 83 % 1020,6 hPa 0,0 l/m 18,3 km/h (3 Bft) W-SW 250 0 min 0,000 mm 0,0 UV-I 0 W/m 3,0 C -1,6 C 27,4 km/h (4 Bft) 100,00 %
12.12.2016 00:18 5,7 C 83 % 1020,6 hPa 0,0 l/m 13,3 km/h (3 Bft) W-SW 248 0 min 0,000 mm 0,0 UV-I 0 W/m 3,0 C 0,8 C 19,3 km/h (3 Bft) 98,11 %
12.12.2016 00:20 5,7 C 83 % 1020,6 hPa 0,0 l/m 14,1 km/h (3 Bft) W 269 0 min 0,000 mm 0,0 UV-I 0 W/m 3,0 C 0,4 C 22,5 km/h (4 Bft) 97,44 %
12.12.2016 00:22 5,7 C 83 % 1020,6 hPa 0,0 l/m 18,5 km/h (3 Bft) W 265 0 min 0,000 mm 0,0 UV-I 0 W/m 3,0 C -1,7 C 24,1 km/h (4 Bft) 100,00 %
12.12.2016 00:24 5,7 C 83 % 1020,6 hPa 0,0 l/m 19,9 km/h (4 Bft) SW 227 0 min 0,000 mm 0,0 UV-I 0 W/m 3,0 C -2,2 C 27,4 km/h (4 Bft) 100,00 %
12.12.2016 00:26 5,7 C 83 % 1020,6 hPa 0,0 l/m 20,3 km/h (4 Bft) W-SW 245 0 min 0,000 mm 0,0 UV-I 0 W/m 3,0 C -2,4 C 33,8 km/h (5 Bft) 100,00 %
12.12.2016 00:28 5,7 C 83 % 1020,6 hPa 0,0 l/m 17,3 km/h (3 Bft) W 260 0 min 0,000 mm 0,0 UV-I 0 W/m 3,0 C -1,2 C 27,4 km/h (4 Bft) 98,11 %
12.12.2016 00:30 5,7 C 83 % 1020,6 hPa 0,0 l/m 20,3 km/h (4 Bft) SW 231 0 min 0,000 mm 0,0 UV-I 0 W/m 3,0 C -2,4 C 27,4 km/h (4 Bft) 100,00 %
12.12.2016 00:32 5,7 C 83 % 1020,7 hPa 0,0 l/m 18,2 km/h (3 Bft) W-SW 240 0 min 0,000 mm 0,0 UV-I 0 W/m 3,0 C -1,5 C 29,0 km/h (5 Bft) 100,00 %
12.12.2016 00:34 5,7 C 83 % 1020,6 hPa 0,0 l/m 19,9 km/h (4 Bft) SW 235 0 min 0,000 mm 0,0 UV-I 0 W/m 3,0 C -2,2 C 32,2 km/h (5 Bft) 97,37 %
12.12.2016 00:36 5,7 C 83 % 1020,6 hPa 0,0 l/m 15,5 km/h (3 Bft) W-SW 252 0 min 0,000 mm 0,0 UV-I 0 W/m 3,0 C -0,3 C 19,3 km/h (3 Bft) 98,11 %
12.12.2016 00:38 5,7 C 83 % 1020,7 hPa 0,0 l/m 18,1 km/h (3 Bft) W 261 0 min 0,000 mm 0,0 UV-I 0 W/m 3,0 C -1,5 C 30,6 km/h (5 Bft) 100,00 %
12.12.2016 00:40 5,7 C 83 % 1020,8 hPa 0,0 l/m 18,7 km/h (3 Bft) SW 214 0 min 0,000 mm 0,0 UV-I 0 W/m 3,0 C -1,8 C 25,7 km/h (4 Bft) 100,00 %
12.12.2016 00:42 5,7 C 84 % 1020,7 hPa 0,0 l/m 18,9 km/h (3 Bft) W-SW 253 0 min 0,000 mm 0,0 UV-I 0 W/m 3,2 C -1,8 C 29,0 km/h (5 Bft) 100,00 %
12.12.2016 00:44 5,7 C 84 % 1020,7 hPa 0,0 l/m 19,5 km/h (3 Bft) W-SW 248 0 min 0,000 mm 0,0 UV-I 0 W/m 3,2 C -2,1 C 30,6 km/h (5 Bft) 100,00 %
12.12.2016 00:46 5,7 C 84 % 1020,7 hPa 0,0 l/m 20,9 km/h (4 Bft) W 263 0 min 0,000 mm 0,0 UV-I 0 W/m 3,2 C -2,6 C 32,2 km/h (5 Bft) 97,73 %
12.12.2016 00:48 5,6 C 84 % 1020,7 hPa 0,0 l/m 21,9 km/h (4 Bft) W-SW 252 0 min 0,000 mm 0,0 UV-I 0 W/m 3,1 C -3,1 C 29,0 km/h (5 Bft) 100,00 %
12.12.2016 00:50 5,6 C 85 % 1020,8 hPa 0,0 l/m 18,7 km/h (3 Bft) SW 232 0 min 0,000 mm 0,0 UV-I 0 W/m 3,3 C -1,9 C 27,4 km/h (4 Bft) 100,00 %
12.12.2016 00:52 5,5 C 85 % 1020,7 hPa 0,0 l/m 22,0 km/h (4 Bft) W-SW 257 0 min 0,000 mm 0,0 UV-I 0 W/m 3,2 C -3,3 C 29,0 km/h (5 Bft) 100,00 %
12.12.2016 00:54 5,5 C 85 % 1020,7 hPa 0,0 l/m 21,7 km/h (4 Bft) W 271 0 min 0,000 mm 0,0 UV-I 0 W/m 3,2 C -3,2 C 32,2 km/h (5 Bft) 100,00 %
12.12.2016 00:56 5,4 C 85 % 1020,8 hPa 0,0 l/m 24,2 km/h (4 Bft) W-SW 249 0 min 0,000 mm 0,0 UV-I 0 W/m 3,1 C -4,1 C 41,8 km/h (6 Bft) 100,00 %
12.12.2016 00:58 5,4 C 85 % 1020,8 hPa 0,2 l/m 19,1 km/h (3 Bft) SW 236 0 min 0,000 mm 0,0 UV-I 0 W/m 3,1 C -2,3 C 25,7 km/h (4 Bft) 100,00 %
12.12.2016 01:00 5,4 C 86 % 1020,8 hPa 0,0 l/m 21,0 km/h (4 Bft) W-SW 258 0 min 0,025 mm 0,0 UV-I 0 W/m 3,3 C -3,0 C 30,6 km/h (5 Bft) 100,00 %
12.12.2016 01:02 5,3 C 86 % 1020,8 hPa 0,0 l/m 22,9 km/h (4 Bft) W-SW 244 0 min 0,000 mm 0,0 UV-I 0 W/m 3,2 C -3,8 C 37,0 km/h (5 Bft) 100,00 %
12.12.2016 01:04 5,3 C 86 % 1020,8 hPa 0,0 l/m 22,5 km/h (4 Bft) W-SW 240 0 min 0,000 mm 0,0 UV-I 0 W/m 3,2 C -3,7 C 33,8 km/h (5 Bft) 97,62 %
12.12.2016 01:06 5,3 C 87 % 1020,8 hPa 0,0 l/m 17,2 km/h (3 Bft) W-SW 256 0 min 0,000 mm 0,0 UV-I 0 W/m 3,3 C -1,6 C 25,7 km/h (4 Bft) 100,00 %
12.12.2016 01:08 5,3 C 87 % 1020,7 hPa 0,0 l/m 25,4 km/h (4 Bft) W 267 0 min 0,000 mm 0,0 UV-I 0 W/m 3,3 C -4,7 C 35,4 km/h (5 Bft) 97,37 %
12.12.2016 01:10 5,2 C 87 % 1020,8 hPa 0,2 l/m 23,3 km/h (4 Bft) W 269 0 min 0,000 mm 0,0 UV-I 0 W/m 3,2 C -4,1 C 33,8 km/h (5 Bft) 97,56 %
12.12.2016 01:12 5,2 C 87 % 1020,8 hPa 0,0 l/m 20,8 km/h (4 Bft) W 261 0 min 0,000 mm 0,0 UV-I 0 W/m 3,2 C -3,2 C 27,4 km/h (4 Bft) 100,00 %
12.12.2016 01:14 5,1 C 87 % 1020,8 hPa 0,0 l/m 20,8 km/h (4 Bft) W 273 0 min 0,000 mm 0,0 UV-I 0 W/m 3,1 C -3,4 C 32,2 km/h (5 Bft) 100,00 %
12.12.2016 01:16 5,1 C 88 % 1020,7 hPa 0,2 l/m 21,4 km/h (4 Bft) W-SW 249 0 min 0,000 mm 0,0 UV-I 0 W/m 3,3 C -3,6 C 32,2 km/h (5 Bft) 100,00 %
12.12.2016 01:18 5,1 C 88 % 1020,8 hPa 0,0 l/m 19,3 km/h (3 Bft) W-SW 244 0 min 0,000 mm 0,0 UV-I 0 W/m 3,3 C -2,8 C 29,0 km/h (5 Bft) 100,00 %
12.12.2016 01:20 5,0 C 88 % 1020,8 hPa 0,0 l/m 25,1 km/h (4 Bft) W 267 0 min 0,000 mm 0,0 UV-I 0 W/m 3,2 C -5,0 C 41,8 km/h (6 Bft) 100,00 %
12.12.2016 01:22 4,9 C 88 % 1020,7 hPa 0,0 l/m 19,4 km/h (3 Bft) W-SW 250 0 min 0,000 mm 0,0 UV-I 0 W/m 3,1 C -3,1 C 32,2 km/h (5 Bft) 100,00 %
12.12.2016 01:24 4,9 C 89 % 1020,8 hPa 0,0 l/m 18,4 km/h (3 Bft) W-NW 286 0 min 0,000 mm 0,0 UV-I 0 W/m 3,2 C -2,6 C 37,0 km/h (5 Bft) 95,12 %
12.12.2016 01:26 4,8 C 89 % 1020,8 hPa 0,0 l/m 18,4 km/h (3 Bft) W 262 0 min 0,000 mm 0,0 UV-I 0 W/m 3,1 C -2,8 C 25,7 km/h (4 Bft) 100,00 %
12.12.2016 01:28 4,8 C 89 % 1020,8 hPa 0,0 l/m 23,3 km/h (4 Bft) W 279 0 min 0,000 mm 0,0 UV-I 0 W/m 3,1 C -4,7 C 35,4 km/h (5 Bft) 100,00 %
12.12.2016 01:30 4,8 C 89 % 1020,8 hPa 0,0 l/m 15,0 km/h (3 Bft) W-SW 253 0 min 0,000 mm 0,0 UV-I 0 W/m 3,1 C -1,2 C 22,5 km/h (4 Bft) 98,00 %
12.12.2016 01:32 4,8 C 89 % 1020,8 hPa 0,2 l/m 15,1 km/h (3 Bft) W-SW 243 0 min 0,000 mm 0,0 UV-I 0 W/m 3,1 C -1,2 C 19,3 km/h (3 Bft) 100,00 %
12.12.2016 01:34 4,7 C 89 % 1020,8 hPa 0,0 l/m 18,2 km/h (3 Bft) W 263 0 min 0,000 mm 0,0 UV-I 0 W/m 3,0 C -2,8 C 35,4 km/h (5 Bft) 100,00 %
12.12.2016 01:36 4,7 C 90 % 1020,8 hPa 0,0 l/m 14,9 km/h (3 Bft) W-SW 256 0 min 0,000 mm 0,0 UV-I 0 W/m 3,2 C -1,2 C 25,7 km/h (4 Bft) 97,87 %
12.12.2016 01:38 4,7 C 90 % 1020,8 hPa 0,0 l/m 19,0 km/h (3 Bft) W 263 0 min 0,000 mm 0,0 UV-I 0 W/m 3,2 C -3,1 C 29,0 km/h (5 Bft) 100,00 %
12.12.2016 01:40 4,6 C 90 % 1020,8 hPa 0,0 l/m 22,5 km/h (4 Bft) W 260 0 min 0,000 mm 0,0 UV-I 0 W/m 3,1 C -4,6 C 37,0 km/h (5 Bft) 100,00 %
12.12.2016 01:42 4,6 C 90 % 1020,8 hPa 0,0 l/m 19,8 km/h (3 Bft) W-SW 244 0 min 0,000 mm 0,0 UV-I 0 W/m 3,1 C -3,6 C 32,2 km/h (5 Bft) 100,00 %
12.12.2016 01:44 4,6 C 90 % 1020,9 hPa 0,0 l/m 19,5 km/h (3 Bft) W 263 0 min 0,000 mm 0,0 UV-I 0 W/m 3,1 C -3,5 C 29,0 km/h (5 Bft) 100,00 %
12.12.2016 01:46 4,5 C 90 % 1020,9 hPa 0,0 l/m 19,0 km/h (3 Bft) W-NW 285 0 min 0,000 mm 0,0 UV-I 0 W/m 3,0 C -3,4 C 27,4 km/h (4 Bft) 100,00 %
12.12.2016 01:48 4,5 C 90 % 1020,9 hPa 0,2 l/m 18,2 km/h (3 Bft) W-SW 244 0 min 0,000 mm 0,0 UV-I 0 W/m 3,0 C -3,1 C 29,0 km/h (5 Bft) 94,00 %
12.12.2016 01:50 4,5 C 90 % 1021,0 hPa 0,0 l/m 16,6 km/h (3 Bft) SW 230 0 min 0,000 mm 0,0 UV-I 0 W/m 3,0 C -2,3 C 27,4 km/h (4 Bft) 95,74 %
12.12.2016 01:52 4,4 C 90 % 1020,9 hPa 0,0 l/m 15,6 km/h (3 Bft) W-SW 250 0 min 0,000 mm 0,0 UV-I 0 W/m 2,9 C -2,0 C 22,5 km/h (4 Bft) 98,00 %
12.12.2016 01:54 4,4 C 90 % 1020,9 hPa 0,0 l/m 18,0 km/h (3 Bft) W-SW 248 0 min 0,000 mm 0,0 UV-I 0 W/m 2,9 C -3,1 C 24,1 km/h (4 Bft) 97,73 %
12.12.2016 01:56 4,4 C 90 % 1020,8 hPa 0,0 l/m 19,8 km/h (3 Bft) W-SW 246 0 min 0,000 mm 0,0 UV-I 0 W/m 2,9 C -3,9 C 30,6 km/h (5 Bft) 97,56 %
12.12.2016 01:58 4,3 C 91 % 1020,9 hPa 0,0 l/m 20,2 km/h (4 Bft) W 266 0 min 0,000 mm 0,0 UV-I 0 W/m 3,0 C -4,2 C 30,6 km/h (5 Bft) 98,21 %
12.12.2016 02:00 4,3 C 91 % 1020,9 hPa 0,0 l/m 15,3 km/h (3 Bft) W 279 0 min 0,026 mm 0,0 UV-I 0 W/m 3,0 C -1,9 C 27,4 km/h (4 Bft) 97,56 %
12.12.2016 02:02 4,3 C 91 % 1020,9 hPa 0,0 l/m 22,4 km/h (4 Bft) W-SW 250 0 min 0,000 mm 0,0 UV-I 0 W/m 3,0 C -5,0 C 33,8 km/h (5 Bft) 96,00 %
12.12.2016 02:04 4,2 C 91 % 1021,0 hPa 0,0 l/m 16,0 km/h (3 Bft) W 268 0 min 0,000 mm 0,0 UV-I 0 W/m 2,9 C -2,4 C 27,4 km/h (4 Bft) 97,56 %
12.12.2016 02:06 4,2 C 91 % 1021,0 hPa 0,0 l/m 17,8 km/h (3 Bft) W-SW 257 0 min 0,000 mm 0,0 UV-I 0 W/m 2,9 C -3,3 C 35,4 km/h (5 Bft) 97,87 %
12.12.2016 02:08 4,2 C 91 % 1021,0 hPa 0,2 l/m 20,3 km/h (4 Bft) W-SW 238 0 min 0,000 mm 0,0 UV-I 0 W/m 2,9 C -4,3 C 32,2 km/h (5 Bft) 98,11 %
12.12.2016 02:10 4,2 C 91 % 1021,0 hPa 0,0 l/m 12,4 km/h (3 Bft) W-SW 248 0 min 0,000 mm 0,0 UV-I 0 W/m 2,9 C -0,4 C 20,9 km/h (4 Bft) 97,73 %
12.12.2016 02:12 4,2 C 91 % 1021,1 hPa 0,0 l/m 12,3 km/h (3 Bft) W 269 0 min 0,000 mm 0,0 UV-I 0 W/m 2,9 C -0,4 C 17,7 km/h (3 Bft) 97,37 %
12.12.2016 02:14 4,2 C 91 % 1021,0 hPa 0,0 l/m 16,1 km/h (3 Bft) W 265 0 min 0,000 mm 0,0 UV-I 0 W/m 2,9 C -2,5 C 24,1 km/h (4 Bft) 97,78 %
12.12.2016 02:16 4,1 C 92 % 1021,1 hPa 0,0 l/m 15,2 km/h (3 Bft) W-SW 250 0 min 0,000 mm 0,0 UV-I 0 W/m 2,9 C -2,1 C 24,1 km/h (4 Bft) 98,36 %
12.12.2016 02:18 4,1 C 92 % 1021,0 hPa 0,0 l/m 12,6 km/h (3 Bft) W-SW 251 0 min 0,000 mm 0,0 UV-I 0 W/m 2,9 C -0,7 C 20,9 km/h (4 Bft) 97,56 %
12.12.2016 02:20 4,1 C 92 % 1021,0 hPa 0,0 l/m 19,5 km/h (3 Bft) W-SW 245 0 min 0,000 mm 0,0 UV-I 0 W/m 2,9 C -4,1 C 32,2 km/h (5 Bft) 96,00 %
12.12.2016 02:22 4,1 C 92 % 1020,9 hPa 0,0 l/m 20,0 km/h (4 Bft) W-SW 254 0 min 0,000 mm 0,0 UV-I 0 W/m 2,9 C -4,3 C 32,2 km/h (5 Bft) 97,44 %
12.12.2016 02:24 4,1 C 92 % 1021,0 hPa 0,0 l/m 17,3 km/h (3 Bft) W 265 0 min 0,000 mm 0,0 UV-I 0 W/m 2,9 C -3,2 C 27,4 km/h (4 Bft) 98,21 %
12.12.2016 02:26 4,1 C 92 % 1020,9 hPa 0,0 l/m 17,3 km/h (3 Bft) W 272 0 min 0,000 mm 0,0 UV-I 0 W/m 2,9 C -3,2 C 27,4 km/h (4 Bft) 100,00 %
12.12.2016 02:28 4,1 C 92 % 1020,9 hPa 0,0 l/m 17,2 km/h (3 Bft) W-SW 244 0 min 0,000 mm 0,0 UV-I 0 W/m 2,9 C -3,1 C 29,0 km/h (5 Bft) 100,00 %
12.12.2016 02:30 4,1 C 92 % 1020,9 hPa 0,0 l/m 18,3 km/h (3 Bft) W 271 0 min 0,000 mm 0,0 UV-I 0 W/m 2,9 C -3,6 C 27,4 km/h (4 Bft) 100,00 %
12.12.2016 02:32 4,1 C 91 % 1020,9 hPa 0,0 l/m 21,9 km/h (4 Bft) W-SW 248 0 min 0,000 mm 0,0 UV-I 0 W/m 2,8 C -5,1 C 33,8 km/h (5 Bft) 100,00 %
12.12.2016 02:34 4,1 C 92 % 1020,9 hPa 0,0 l/m 13,8 km/h (3 Bft) W 263 0 min 0,000 mm 0,0 UV-I 0 W/m 2,9 C -1,4 C 25,7 km/h (4 Bft) 100,00 %
12.12.2016 02:36 4,1 C 92 % 1020,9 hPa 0,0 l/m 18,6 km/h (3 Bft) W-SW 241 0 min 0,000 mm 0,0 UV-I 0 W/m 2,9 C -3,7 C 29,0 km/h (5 Bft) 100,00 %
12.12.2016 02:38 4,1 C 92 % 1020,9 hPa 0,0 l/m 19,3 km/h (3 Bft) W 268 0 min 0,000 mm 0,0 UV-I 0 W/m 2,9 C -4,0 C 27,4 km/h (4 Bft) 98,00 %
12.12.2016 02:40 4,1 C 92 % 1020,9 hPa 0,0 l/m 19,1 km/h (3 Bft) W-SW 257 0 min 0,000 mm 0,0 UV-I 0 W/m 2,9 C -4,0 C 25,7 km/h (4 Bft) 100,00 %
12.12.2016 02:42 4,1 C 92 % 1020,9 hPa 0,0 l/m 15,1 km/h (3 Bft) W-SW 247 0 min 0,000 mm 0,0 UV-I 0 W/m 2,9 C -2,1 C 20,9 km/h (4 Bft) 100,00 %
12.12.2016 02:44 4,0 C 92 % 1020,9 hPa 0,0 l/m 14,3 km/h (3 Bft) W-SW 248 0 min 0,000 mm 0,0 UV-I 0 W/m 2,8 C -1,8 C 20,9 km/h (4 Bft) 100,00 %
12.12.2016 02:46 4,0 C 92 % 1020,8 hPa 0,0 l/m 19,6 km/h (3 Bft) W-SW 252 0 min 0,000 mm 0,0 UV-I 0 W/m 2,8 C -4,3 C 29,0 km/h (5 Bft) 100,00 %
12.12.2016 02:48 4,0 C 92 % 1020,9 hPa 0,0 l/m 15,6 km/h (3 Bft) W-SW 257 0 min 0,000 mm 0,0 UV-I 0 W/m 2,8 C -2,4 C 22,5 km/h (4 Bft) 100,00 %
12.12.2016 02:50 4,0 C 92 % 1020,8 hPa 0,0 l/m 14,2 km/h (3 Bft) W 267 0 min 0,000 mm 0,0 UV-I 0 W/m 2,8 C -1,7 C 19,3 km/h (3 Bft) 100,00 %
12.12.2016 02:52 4,0 C 92 % 1020,8 hPa 0,0 l/m 15,3 km/h (3 Bft) W-SW 252 0 min 0,000 mm 0,0 UV-I 0 W/m 2,8 C -2,3 C 20,9 km/h (4 Bft) 100,00 %
12.12.2016 02:54 4,0 C 92 % 1020,8 hPa 0,2 l/m 15,9 km/h (3 Bft) W 264 0 min 0,000 mm 0,0 UV-I 0 W/m 2,8 C -2,6 C 25,7 km/h (4 Bft) 98,21 %
12.12.2016 02:56 4,0 C 92 % 1020,8 hPa 0,0 l/m 17,8 km/h (3 Bft) W 259 0 min 0,000 mm 0,0 UV-I 0 W/m 2,8 C -3,5 C 29,0 km/h (5 Bft) 100,00 %
12.12.2016 02:58 3,9 C 92 % 1020,7 hPa 0,0 l/m 20,6 km/h (4 Bft) SW 228 0 min 0,000 mm 0,0 UV-I 0 W/m 2,7 C -4,8 C 29,0 km/h (5 Bft) 100,00 %
12.12.2016 03:00 3,9 C 92 % 1020,7 hPa 0,0 l/m 14,2 km/h (3 Bft) W-SW 246 0 min 0,025 mm 0,0 UV-I 0 W/m 2,7 C -1,8 C 19,3 km/h (3 Bft) 100,00 %
12.12.2016 03:02 3,9 C 92 % 1020,7 hPa 0,0 l/m 17,2 km/h (3 Bft) W-NW 302 0 min 0,000 mm 0,0 UV-I 0 W/m 2,7 C -3,4 C 29,0 km/h (5 Bft) 100,00 %
12.12.2016 03:04 3,9 C 92 % 1020,8 hPa 0,0 l/m 16,1 km/h (3 Bft) W-SW 253 0 min 0,000 mm 0,0 UV-I 0 W/m 2,7 C -2,8 C 22,5 km/h (4 Bft) 100,00 %
12.12.2016 03:06 3,9 C 92 % 1020,8 hPa 0,0 l/m 21,1 km/h (4 Bft) W-SW 252 0 min 0,000 mm 0,0 UV-I 0 W/m 2,7 C -5,0 C 27,4 km/h (4 Bft) 97,56 %
12.12.2016 03:08 3,9 C 92 % 1020,7 hPa 0,0 l/m 14,0 km/h (3 Bft) W 266 0 min 0,000 mm 0,0 UV-I 0 W/m 2,7 C -1,7 C 22,5 km/h (4 Bft) 100,00 %
12.12.2016 03:10 3,9 C 92 % 1020,7 hPa 0,0 l/m 14,6 km/h (3 Bft) W-SW 244 0 min 0,000 mm 0,0 UV-I 0 W/m 2,7 C -2,0 C 20,9 km/h (4 Bft) 97,56 %
12.12.2016 03:12 3,9 C 92 % 1020,7 hPa 0,0 l/m 19,3 km/h (3 Bft) W 267 0 min 0,000 mm 0,0 UV-I 0 W/m 2,7 C -4,3 C 30,6 km/h (5 Bft) 100,00 %
12.12.2016 03:14 3,9 C 92 % 1020,7 hPa 0,0 l/m 16,7 km/h (3 Bft) W-SW 258 0 min 0,000 mm 0,0 UV-I 0 W/m 2,7 C -3,1 C 22,5 km/h (4 Bft) 100,00 %
12.12.2016 03:16 3,9 C 92 % 1020,7 hPa 0,0 l/m 18,5 km/h (3 Bft) W 261 0 min 0,000 mm 0,0 UV-I 0 W/m 2,7 C -4,0 C 22,5 km/h (4 Bft) 100,00 %
12.12.2016 03:18 3,9 C 92 % 1020,7 hPa 0,0 l/m 17,0 km/h (3 Bft) W-SW 249 0 min 0,000 mm 0,0 UV-I 0 W/m 2,7 C -3,3 C 25,7 km/h (4 Bft) 100,00 %
12.12.2016 03:20 3,9 C 92 % 1020,7 hPa 0,0 l/m 15,5 km/h (3 Bft) W-SW 252 0 min 0,000 mm 0,0 UV-I 0 W/m 2,7 C -2,5 C 25,7 km/h (4 Bft) 97,37 %
12.12.2016 03:22 3,9 C 92 % 1020,7 hPa 0,0 l/m 15,2 km/h (3 Bft) W 263 0 min 0,000 mm 0,0 UV-I 0 W/m 2,7 C -2,4 C 20,9 km/h (4 Bft) 100,00 %
12.12.2016 03:24 3,9 C 92 % 1020,6 hPa 0,0 l/m 15,3 km/h (3 Bft) W-SW 258 0 min 0,000 mm 0,0 UV-I 0 W/m 2,7 C -2,4 C 20,9 km/h (4 Bft) 97,73 %
12.12.2016 03:26 3,9 C 92 % 1020,6 hPa 0,0 l/m 12,4 km/h (3 Bft) W-SW 254 0 min 0,000 mm 0,0 UV-I 0 W/m 2,7 C -0,8 C 19,3 km/h (3 Bft) 100,00 %
12.12.2016 03:28 3,9 C 92 % 1020,6 hPa 0,0 l/m 16,3 km/h (3 Bft) SW 230 0 min 0,000 mm 0,0 UV-I 0 W/m 2,7 C -2,9 C 19,3 km/h (3 Bft) 100,00 %
12.12.2016 03:30 3,9 C 92 % 1020,5 hPa 0,0 l/m 15,4 km/h (3 Bft) W-SW 241 0 min 0,000 mm 0,0 UV-I 0 W/m 2,7 C -2,5 C 24,1 km/h (4 Bft) 100,00 %
12.12.2016 03:32 3,9 C 92 % 1020,5 hPa 0,0 l/m 18,3 km/h (3 Bft) W-SW 246 0 min 0,000 mm 0,0 UV-I 0 W/m 2,7 C -3,9 C 27,4 km/h (4 Bft) 100,00 %
12.12.2016 03:34 3,8 C 92 % 1020,4 hPa 0,0 l/m 20,2 km/h (4 Bft) W-SW 257 0 min 0,000 mm 0,0 UV-I 0 W/m 2,6 C -4,8 C 29,0 km/h (5 Bft) 98,11 %
12.12.2016 03:36 3,9 C 92 % 1020,4 hPa 0,0 l/m 17,1 km/h (3 Bft) W-SW 253 0 min 0,000 mm 0,0 UV-I 0 W/m 2,7 C -3,3 C 25,7 km/h (4 Bft) 100,00 %
12.12.2016 03:38 3,8 C 92 % 1020,4 hPa 0,0 l/m 12,8 km/h (3 Bft) W-SW 257 0 min 0,000 mm 0,0 UV-I 0 W/m 2,6 C -1,1 C 19,3 km/h (3 Bft) 100,00 %
12.12.2016 03:40 3,9 C 92 % 1020,4 hPa 0,0 l/m 17,1 km/h (3 Bft) W-SW 248 0 min 0,000 mm 0,0 UV-I 0 W/m 2,7 C -3,3 C 32,2 km/h (5 Bft) 100,00 %
12.12.2016 03:42 3,9 C 92 % 1020,4 hPa 0,0 l/m 17,2 km/h (3 Bft) W-SW 249 0 min 0,000 mm 0,0 UV-I 0 W/m 2,7 C -3,4 C 24,1 km/h (4 Bft) 100,00 %
12.12.2016 03:44 3,9 C 92 % 1020,4 hPa 0,0 l/m 17,3 km/h (3 Bft) W-SW 246 0 min 0,000 mm 0,0 UV-I 0 W/m 2,7 C -3,4 C 24,1 km/h (4 Bft) 100,00 %
12.12.2016 03:46 3,9 C 92 % 1020,5 hPa 0,0 l/m 14,1 km/h (3 Bft) W-SW 244 0 min 0,000 mm 0,0 UV-I 0 W/m 2,7 C -1,8 C 20,9 km/h (4 Bft) 100,00 %
12.12.2016 03:48 3,9 C 92 % 1020,4 hPa 0,0 l/m 14,3 km/h (3 Bft) W-SW 238 0 min 0,000 mm 0,0 UV-I 0 W/m 2,7 C -1,9 C 19,3 km/h (3 Bft) 100,00 %
12.12.2016 03:50 3,9 C 92 % 1020,4 hPa 0,0 l/m 12,6 km/h (3 Bft) SW 223 0 min 0,000 mm 0,0 UV-I 0 W/m 2,7 C -0,9 C 20,9 km/h (4 Bft) 100,00 %
12.12.2016 03:52 3,9 C 92 % 1020,5 hPa 0,0 l/m 17,0 km/h (3 Bft) W-SW 246 0 min 0,000 mm 0,0 UV-I 0 W/m 2,7 C -3,3 C 24,1 km/h (4 Bft) 100,00 %
12.12.2016 03:54 3,9 C 92 % 1020,4 hPa 0,0 l/m 14,9 km/h (3 Bft) SW 234 0 min 0,000 mm 0,0 UV-I 0 W/m 2,7 C -2,2 C 24,1 km/h (4 Bft) 100,00 %
12.12.2016 03:56 3,9 C 92 % 1020,3 hPa 0,0 l/m 15,0 km/h (3 Bft) W-SW 249 0 min 0,000 mm 0,0 UV-I 0 W/m 2,7 C -2,3 C 22,5 km/h (4 Bft) 100,00 %
12.12.2016 03:58 3,8 C 92 % 1020,3 hPa 0,0 l/m 16,0 km/h (3 Bft) W-SW 257 0 min 0,000 mm 0,0 UV-I 0 W/m 2,6 C -2,9 C 25,7 km/h (4 Bft) 100,00 %
12.12.2016 04:00 3,8 C 92 % 1020,4 hPa 0,0 l/m 20,0 km/h (4 Bft) SW 226 0 min 0,026 mm 0,0 UV-I 0 W/m 2,6 C -4,7 C 29,0 km/h (5 Bft) 100,00 %
12.12.2016 04:02 3,8 C 92 % 1020,4 hPa 0,0 l/m 21,2 km/h (4 Bft) W-SW 249 0 min 0,000 mm 0,0 UV-I 0 W/m 2,6 C -5,2 C 25,7 km/h (4 Bft) 100,00 %
12.12.2016 04:04 3,8 C 92 % 1020,3 hPa 0,0 l/m 20,6 km/h (4 Bft) SW 232 0 min 0,000 mm 0,0 UV-I 0 W/m 2,6 C -5,0 C 30,6 km/h (5 Bft) 97,87 %
12.12.2016 04:06 3,7 C 92 % 1020,3 hPa 0,0 l/m 21,1 km/h (4 Bft) SW 234 0 min 0,000 mm 0,0 UV-I 0 W/m 2,5 C -5,3 C 32,2 km/h (5 Bft) 97,56 %
12.12.2016 04:08 3,7 C 92 % 1020,4 hPa 0,0 l/m 19,3 km/h (3 Bft) W-SW 247 0 min 0,000 mm 0,0 UV-I 0 W/m 2,5 C -4,6 C 30,6 km/h (5 Bft) 98,11 %
12.12.2016 04:10 3,7 C 92 % 1020,3 hPa 0,0 l/m 17,1 km/h (3 Bft) W-SW 238 0 min 0,000 mm 0,0 UV-I 0 W/m 2,5 C -3,6 C 27,4 km/h (4 Bft) 97,56 %
12.12.2016 04:12 3,7 C 92 % 1020,4 hPa 0,0 l/m 18,6 km/h (3 Bft) SW 218 0 min 0,000 mm 0,0 UV-I 0 W/m 2,5 C -4,3 C 24,1 km/h (4 Bft) 97,56 %
12.12.2016 04:14 3,7 C 92 % 1020,3 hPa 0,0 l/m 20,5 km/h (4 Bft) SW 233 0 min 0,000 mm 0,0 UV-I 0 W/m 2,5 C -5,1 C 30,6 km/h (5 Bft) 96,00 %
12.12.2016 04:16 3,7 C 92 % 1020,3 hPa 0,0 l/m 17,9 km/h (3 Bft) W-SW 240 0 min 0,000 mm 0,0 UV-I 0 W/m 2,5 C -3,9 C 25,7 km/h (4 Bft) 97,87 %
12.12.2016 04:18 3,6 C 92 % 1020,3 hPa 0,0 l/m 19,7 km/h (3 Bft) W-SW 238 0 min 0,000 mm 0,0 UV-I 0 W/m 2,4 C -4,9 C 25,7 km/h (4 Bft) 97,92 %
12.12.2016 04:20 3,6 C 92 % 1020,2 hPa 0,0 l/m 18,5 km/h (3 Bft) W-SW 244 0 min 0,000 mm 0,0 UV-I 0 W/m 2,4 C -4,3 C 24,1 km/h (4 Bft) 96,15 %
12.12.2016 04:22 3,6 C 92 % 1020,2 hPa 0,0 l/m 21,2 km/h (4 Bft) W-SW 240 0 min 0,000 mm 0,0 UV-I 0 W/m 2,4 C -5,5 C 32,2 km/h (5 Bft) 97,44 %
12.12.2016 04:24 3,6 C 92 % 1020,2 hPa 0,0 l/m 17,6 km/h (3 Bft) W-SW 248 0 min 0,000 mm 0,0 UV-I 0 W/m 2,4 C -3,9 C 27,4 km/h (4 Bft) 97,73 %
12.12.2016 04:26 3,6 C 92 % 1020,2 hPa 0,0 l/m 17,0 km/h (3 Bft) W 271 0 min 0,000 mm 0,0 UV-I 0 W/m 2,4 C -3,6 C 24,1 km/h (4 Bft) 98,31 %
12.12.2016 04:28 3,6 C 92 % 1020,3 hPa 0,2 l/m 20,3 km/h (4 Bft) W-SW 248 0 min 0,000 mm 0,0 UV-I 0 W/m 2,4 C -5,1 C 32,2 km/h (5 Bft) 97,87 %
12.12.2016 04:30 3,6 C 92 % 1020,2 hPa 0,0 l/m 19,9 km/h (4 Bft) W-SW 238 0 min 0,000 mm 0,0 UV-I 0 W/m 2,4 C -4,9 C 29,0 km/h (5 Bft) 95,74 %
12.12.2016 04:32 3,6 C 92 % 1020,2 hPa 0,0 l/m 16,7 km/h (3 Bft) W-SW 246 0 min 0,000 mm 0,0 UV-I 0 W/m 2,4 C -3,5 C 24,1 km/h (4 Bft) 95,74 %
12.12.2016 04:34 3,7 C 92 % 1020,2 hPa 0,0 l/m 15,3 km/h (3 Bft) SW 232 0 min 0,000 mm 0,0 UV-I 0 W/m 2,5 C -2,7 C 27,4 km/h (4 Bft) 97,56 %
12.12.2016 04:36 3,6 C 93 % 1020,2 hPa 0,0 l/m 18,2 km/h (3 Bft) SW 221 0 min 0,000 mm 0,0 UV-I 0 W/m 2,6 C -4,2 C 24,1 km/h (4 Bft) 97,73 %
12.12.2016 04:38 3,6 C 93 % 1020,3 hPa 0,0 l/m 16,5 km/h (3 Bft) SW 232 0 min 0,000 mm 0,0 UV-I 0 W/m 2,6 C -3,4 C 24,1 km/h (4 Bft) 96,23 %
12.12.2016 04:40 3,6 C 93 % 1020,3 hPa 0,0 l/m 18,4 km/h (3 Bft) W-SW 248 0 min 0,000 mm 0,0 UV-I 0 W/m 2,6 C -4,3 C 27,4 km/h (4 Bft) 100,00 %
12.12.2016 04:42 3,6 C 93 % 1020,3 hPa 0,0 l/m 16,3 km/h (3 Bft) W-SW 243 0 min 0,000 mm 0,0 UV-I 0 W/m 2,6 C -3,3 C 24,1 km/h (4 Bft) 100,00 %
12.12.2016 04:44 3,6 C 93 % 1020,3 hPa 0,2 l/m 21,0 km/h (4 Bft) W 265 0 min 0,000 mm 0,0 UV-I 0 W/m 2,6 C -5,4 C 32,2 km/h (5 Bft) 98,00 %
12.12.2016 04:46 3,6 C 93 % 1020,3 hPa 0,0 l/m 16,8 km/h (3 Bft) W-SW 237 0 min 0,000 mm 0,0 UV-I 0 W/m 2,6 C -3,5 C 24,1 km/h (4 Bft) 100,00 %
12.12.2016 04:48 3,6 C 93 % 1020,3 hPa 0,0 l/m 15,4 km/h (3 Bft) W 265 0 min 0,000 mm 0,0 UV-I 0 W/m 2,6 C -2,8 C 24,1 km/h (4 Bft) 100,00 %
12.12.2016 04:50 3,6 C 93 % 1020,3 hPa 0,0 l/m 15,3 km/h (3 Bft) W-SW 239 0 min 0,000 mm 0,0 UV-I 0 W/m 2,6 C -2,8 C 25,7 km/h (4 Bft) 100,00 %
12.12.2016 04:52 3,6 C 93 % 1020,3 hPa 0,0 l/m 15,4 km/h (3 Bft) W-SW 244 0 min 0,000 mm 0,0 UV-I 0 W/m 2,6 C -2,8 C 22,5 km/h (4 Bft) 100,00 %
12.12.2016 04:54 3,6 C 93 % 1020,3 hPa 0,0 l/m 15,5 km/h (3 Bft) SW 215 0 min 0,000 mm 0,0 UV-I 0 W/m 2,6 C -2,9 C 20,9 km/h (4 Bft) 100,00 %
12.12.2016 04:56 3,6 C 93 % 1020,3 hPa 0,0 l/m 19,1 km/h (3 Bft) W 259 0 min 0,000 mm 0,0 UV-I 0 W/m 2,6 C -4,6 C 27,4 km/h (4 Bft) 98,51 %
12.12.2016 04:58 3,6 C 93 % 1020,4 hPa 0,2 l/m 18,0 km/h (3 Bft) W-SW 254 0 min 0,000 mm 0,0 UV-I 0 W/m 2,6 C -4,1 C 25,7 km/h (4 Bft) 100,00 %
12.12.2016 05:00 3,5 C 93 % 1020,4 hPa 0,0 l/m 16,2 km/h (3 Bft) W-SW 254 0 min 0,025 mm 0,0 UV-I 0 W/m 2,5 C -3,4 C 27,4 km/h (4 Bft) 100,00 %
12.12.2016 05:02 3,5 C 93 % 1020,4 hPa 0,0 l/m 18,9 km/h (3 Bft) W-SW 241 0 min 0,000 mm 0,0 UV-I 0 W/m 2,5 C -4,6 C 24,1 km/h (4 Bft) 96,23 %
12.12.2016 05:04 3,5 C 93 % 1020,3 hPa 0,0 l/m 18,6 km/h (3 Bft) W-SW 237 0 min 0,000 mm 0,0 UV-I 0 W/m 2,5 C -4,5 C 25,7 km/h (4 Bft) 100,00 %
12.12.2016 05:06 3,4 C 93 % 1020,4 hPa 0,0 l/m 16,6 km/h (3 Bft) W-SW 247 0 min 0,000 mm 0,0 UV-I 0 W/m 2,4 C -3,7 C 24,1 km/h (4 Bft) 100,00 %
12.12.2016 05:08 3,5 C 93 % 1020,4 hPa 0,0 l/m 15,0 km/h (3 Bft) W-SW 242 0 min 0,000 mm 0,0 UV-I 0 W/m 2,5 C -2,7 C 20,9 km/h (4 Bft) 100,00 %
12.12.2016 05:10 3,4 C 94 % 1020,4 hPa 0,0 l/m 17,3 km/h (3 Bft) W-SW 250 0 min 0,000 mm 0,0 UV-I 0 W/m 2,5 C -4,0 C 24,1 km/h (4 Bft) 100,00 %
12.12.2016 05:12 3,4 C 94 % 1020,4 hPa 0,0 l/m 20,6 km/h (4 Bft) W 264 0 min 0,000 mm 0,0 UV-I 0 W/m 2,5 C -5,5 C 32,2 km/h (5 Bft) 100,00 %
12.12.2016 05:14 3,4 C 94 % 1020,4 hPa 0,0 l/m 18,8 km/h (3 Bft) SW 214 0 min 0,000 mm 0,0 UV-I 0 W/m 2,5 C -4,7 C 24,1 km/h (4 Bft) 100,00 %
12.12.2016 05:16 3,4 C 94 % 1020,4 hPa 0,0 l/m 17,7 km/h (3 Bft) W 264 0 min 0,000 mm 0,0 UV-I 0 W/m 2,5 C -4,2 C 27,4 km/h (4 Bft) 100,00 %
12.12.2016 05:18 3,4 C 94 % 1020,4 hPa 0,2 l/m 20,0 km/h (4 Bft) W 260 0 min 0,000 mm 0,0 UV-I 0 W/m 2,5 C -5,2 C 29,0 km/h (5 Bft) 100,00 %
12.12.2016 05:20 3,4 C 94 % 1020,4 hPa 0,0 l/m 23,2 km/h (4 Bft) W-SW 255 0 min 0,000 mm 0,0 UV-I 0 W/m 2,5 C -6,5 C 33,8 km/h (5 Bft) 100,00 %
12.12.2016 05:22 3,4 C 94 % 1020,4 hPa 0,0 l/m 19,3 km/h (3 Bft) W 261 0 min 0,000 mm 0,0 UV-I 0 W/m 2,5 C -4,9 C 29,0 km/h (5 Bft) 100,00 %
12.12.2016 05:24 3,4 C 94 % 1020,5 hPa 0,0 l/m 17,1 km/h (3 Bft) W-SW 240 0 min 0,000 mm 0,0 UV-I 0 W/m 2,5 C -3,9 C 27,4 km/h (4 Bft) 100,00 %
12.12.2016 05:26 3,4 C 94 % 1020,5 hPa 0,0 l/m 15,6 km/h (3 Bft) SW 233 0 min 0,000 mm 0,0 UV-I 0 W/m 2,5 C -3,2 C 22,5 km/h (4 Bft) 100,00 %
12.12.2016 05:28 3,4 C 94 % 1020,5 hPa 0,0 l/m 19,3 km/h (3 Bft) W-SW 258 0 min 0,000 mm 0,0 UV-I 0 W/m 2,5 C -4,9 C 27,4 km/h (4 Bft) 100,00 %
12.12.2016 05:30 3,4 C 94 % 1020,6 hPa 0,0 l/m 16,7 km/h (3 Bft) W-SW 254 0 min 0,000 mm 0,0 UV-I 0 W/m 2,5 C -3,7 C 22,5 km/h (4 Bft) 100,00 %
12.12.2016 05:32 3,4 C 94 % 1020,5 hPa 0,0 l/m 17,5 km/h (3 Bft) W-SW 251 0 min 0,000 mm 0,0 UV-I 0 W/m 2,5 C -4,1 C 24,1 km/h (4 Bft) 100,00 %
12.12.2016 05:34 3,4 C 94 % 1020,5 hPa 0,0 l/m 15,9 km/h (3 Bft) W-SW 248 0 min 0,000 mm 0,0 UV-I 0 W/m 2,5 C -3,3 C 24,1 km/h (4 Bft) 100,00 %
12.12.2016 05:36 3,4 C 94 % 1020,5 hPa 0,0 l/m 16,3 km/h (3 Bft) W-SW 248 0 min 0,000 mm 0,0 UV-I 0 W/m 2,5 C -3,5 C 29,0 km/h (5 Bft) 100,00 %
12.12.2016 05:38 3,4 C 94 % 1020,5 hPa 0,0 l/m 16,4 km/h (3 Bft) W-SW 254 0 min 0,000 mm 0,0 UV-I 0 W/m 2,5 C -3,6 C 25,7 km/h (4 Bft) 100,00 %
12.12.2016 05:40 3,4 C 94 % 1020,6 hPa 0,0 l/m 14,8 km/h (3 Bft) W-SW 246 0 min 0,000 mm 0,0 UV-I 0 W/m 2,5 C -2,8 C 24,1 km/h (4 Bft) 100,00 %
12.12.2016 05:42 3,4 C 94 % 1020,6 hPa 0,0 l/m 14,5 km/h (3 Bft) SW 215 0 min 0,000 mm 0,0 UV-I 0 W/m 2,5 C -2,6 C 22,5 km/h (4 Bft) 100,00 %
12.12.2016 05:44 3,4 C 94 % 1020,6 hPa 0,0 l/m 14,6 km/h (3 Bft) W-SW 239 0 min 0,000 mm 0,0 UV-I 0 W/m 2,5 C -2,6 C 20,9 km/h (4 Bft) 98,00 %
12.12.2016 05:46 3,3 C 94 % 1020,6 hPa 0,0 l/m 18,3 km/h (3 Bft) W-SW 237 0 min 0,000 mm 0,0 UV-I 0 W/m 2,4 C -4,6 C 24,1 km/h (4 Bft) 100,00 %
12.12.2016 05:48 3,3 C 94 % 1020,6 hPa 0,0 l/m 14,5 km/h (3 Bft) SW 220 0 min 0,000 mm 0,0 UV-I 0 W/m 2,4 C -2,7 C 20,9 km/h (4 Bft) 97,56 %
12.12.2016 05:50 3,3 C 94 % 1020,6 hPa 0,0 l/m 12,9 km/h (3 Bft) SW 226 0 min 0,000 mm 0,0 UV-I 0 W/m 2,4 C -1,8 C 19,3 km/h (3 Bft) 100,00 %
12.12.2016 05:52 3,3 C 94 % 1020,6 hPa 0,0 l/m 16,0 km/h (3 Bft) SW 214 0 min 0,000 mm 0,0 UV-I 0 W/m 2,4 C -3,5 C 22,5 km/h (4 Bft) 100,00 %
12.12.2016 05:54 3,3 C 94 % 1020,7 hPa 0,0 l/m 11,9 km/h (2 Bft) W 268 0 min 0,000 mm 0,0 UV-I 0 W/m 2,4 C -1,1 C 19,3 km/h (3 Bft) 100,00 %
12.12.2016 05:56 3,3 C 94 % 1020,6 hPa 0,0 l/m 15,6 km/h (3 Bft) S 187 0 min 0,000 mm 0,0 UV-I 0 W/m 2,4 C -3,3 C 24,1 km/h (4 Bft) 97,14 %
12.12.2016 05:58 3,3 C 94 % 1020,7 hPa 0,0 l/m 11,0 km/h (2 Bft) W-SW 239 0 min 0,000 mm 0,0 UV-I 0 W/m 2,4 C -0,5 C 17,7 km/h (3 Bft) 100,00 %
12.12.2016 06:00 3,3 C 94 % 1020,7 hPa 0,0 l/m 10,7 km/h (2 Bft) S-SW 211 0 min 0,000 mm 0,0 UV-I 0 W/m 2,4 C -0,3 C 17,7 km/h (3 Bft) 98,00 %
12.12.2016 06:02 3,3 C 94 % 1020,8 hPa 0,0 l/m 11,7 km/h (2 Bft) SW 235 0 min 0,000 mm 0,0 UV-I 0 W/m 2,4 C -1,0 C 20,9 km/h (4 Bft) 100,00 %
12.12.2016 06:04 3,3 C 94 % 1020,9 hPa 0,0 l/m 14,0 km/h (3 Bft) SW 215 0 min 0,000 mm 0,0 UV-I 0 W/m 2,4 C -2,4 C 22,5 km/h (4 Bft) 100,00 %
12.12.2016 06:06 3,3 C 94 % 1020,8 hPa 0,0 l/m 15,1 km/h (3 Bft) SW 232 0 min 0,000 mm 0,0 UV-I 0 W/m 2,4 C -3,0 C 25,7 km/h (4 Bft) 100,00 %
12.12.2016 06:08 3,3 C 94 % 1020,8 hPa 0,0 l/m 12,9 km/h (3 Bft) W-SW 248 0 min 0,000 mm 0,0 UV-I 0 W/m 2,4 C -1,8 C 19,3 km/h (3 Bft) 100,00 %
12.12.2016 06:10 3,3 C 94 % 1020,8 hPa 0,0 l/m 11,2 km/h (2 Bft) W-SW 243 0 min 0,000 mm 0,0 UV-I 0 W/m 2,4 C -0,7 C 19,3 km/h (3 Bft) 95,45 %
12.12.2016 06:12 3,3 C 94 % 1020,7 hPa 0,0 l/m 15,1 km/h (3 Bft) W-SW 237 0 min 0,000 mm 0,0 UV-I 0 W/m 2,4 C -3,0 C 22,5 km/h (4 Bft) 98,00 %
12.12.2016 06:14 3,3 C 94 % 1020,7 hPa 0,0 l/m 16,3 km/h (3 Bft) SW 232 0 min 0,000 mm 0,0 UV-I 0 W/m 2,4 C -3,7 C 25,7 km/h (4 Bft) 98,00 %
12.12.2016 06:16 3,3 C 94 % 1020,7 hPa 0,0 l/m 12,8 km/h (3 Bft) SW 236 0 min 0,000 mm 0,0 UV-I 0 W/m 2,4 C -1,7 C 17,7 km/h (3 Bft) 97,87 %
12.12.2016 06:18 3,3 C 94 % 1020,7 hPa 0,0 l/m 13,0 km/h (3 Bft) W-SW 238 0 min 0,000 mm 0,0 UV-I 0 W/m 2,4 C -1,8 C 20,9 km/h (4 Bft) 97,44 %
12.12.2016 06:20 3,3 C 94 % 1020,7 hPa 0,0 l/m 14,9 km/h (3 Bft) SW 236 0 min 0,000 mm 0,0 UV-I 0 W/m 2,4 C -2,9 C 22,5 km/h (4 Bft) 96,36 %
12.12.2016 06:22 3,3 C 94 % 1020,8 hPa 0,0 l/m 12,0 km/h (2 Bft) SW 233 0 min 0,000 mm 0,0 UV-I 0 W/m 2,4 C -1,2 C 19,3 km/h (3 Bft) 97,44 %
12.12.2016 06:24 3,3 C 94 % 1020,7 hPa 0,0 l/m 12,4 km/h (3 Bft) W-SW 243 0 min 0,000 mm 0,0 UV-I 0 W/m 2,4 C -1,5 C 17,7 km/h (3 Bft) 97,73 %
12.12.2016 06:26 3,3 C 94 % 1020,8 hPa 0,0 l/m 15,3 km/h (3 Bft) W-SW 240 0 min 0,000 mm 0,0 UV-I 0 W/m 2,4 C -3,1 C 24,1 km/h (4 Bft) 98,11 %
12.12.2016 06:28 3,3 C 94 % 1020,8 hPa 0,0 l/m 18,6 km/h (3 Bft) SW 227 0 min 0,000 mm 0,0 UV-I 0 W/m 2,4 C -4,8 C 22,5 km/h (4 Bft) 97,87 %
12.12.2016 06:30 3,3 C 94 % 1020,7 hPa 0,0 l/m 15,2 km/h (3 Bft) S-SW 210 0 min 0,000 mm 0,0 UV-I 0 W/m 2,4 C -3,1 C 20,9 km/h (4 Bft) 97,37 %
12.12.2016 06:32 3,3 C 94 % 1020,7 hPa 0,0 l/m 15,0 km/h (3 Bft) SW 230 0 min 0,000 mm 0,0 UV-I 0 W/m 2,4 C -3,0 C 22,5 km/h (4 Bft) 96,23 %
12.12.2016 06:34 3,3 C 94 % 1020,7 hPa 0,0 l/m 14,2 km/h (3 Bft) SW 236 0 min 0,000 mm 0,0 UV-I 0 W/m 2,4 C -2,5 C 20,9 km/h (4 Bft) 98,11 %
12.12.2016 06:36 3,3 C 94 % 1020,7 hPa 0,0 l/m 14,8 km/h (3 Bft) S-SW 199 0 min 0,000 mm 0,0 UV-I 0 W/m 2,4 C -2,9 C 22,5 km/h (4 Bft) 97,56 %
12.12.2016 06:38 3,3 C 94 % 1020,7 hPa 0,0 l/m 16,0 km/h (3 Bft) SW 229 0 min 0,000 mm 0,0 UV-I 0 W/m 2,4 C -3,5 C 22,5 km/h (4 Bft) 97,73 %
12.12.2016 06:40 3,3 C 94 % 1020,7 hPa 0,0 l/m 19,4 km/h (3 Bft) S-SW 210 0 min 0,000 mm 0,0 UV-I 0 W/m 2,4 C -5,1 C 27,4 km/h (4 Bft) 96,23 %
12.12.2016 06:42 3,3 C 94 % 1020,7 hPa 0,0 l/m 17,3 km/h (3 Bft) W-SW 239 0 min 0,000 mm 0,0 UV-I 0 W/m 2,4 C -4,2 C 24,1 km/h (4 Bft) 95,74 %
12.12.2016 06:44 3,3 C 94 % 1020,8 hPa 0,0 l/m 19,5 km/h (3 Bft) W-SW 239 0 min 0,000 mm 0,0 UV-I 0 W/m 2,4 C -5,2 C 27,4 km/h (4 Bft) 97,87 %
12.12.2016 06:46 3,3 C 94 % 1020,7 hPa 0,0 l/m 18,2 km/h (3 Bft) SW 215 0 min 0,000 mm 0,0 UV-I 0 W/m 2,4 C -4,6 C 25,7 km/h (4 Bft) 97,56 %
12.12.2016 06:48 3,3 C 94 % 1020,8 hPa 0,0 l/m 19,4 km/h (3 Bft) SW 216 0 min 0,000 mm 0,0 UV-I 0 W/m 2,4 C -5,1 C 29,0 km/h (5 Bft) 100,00 %
12.12.2016 06:50 3,3 C 94 % 1020,7 hPa 0,0 l/m 19,7 km/h (3 Bft) W 259 0 min 0,000 mm 0,0 UV-I 0 W/m 2,4 C -5,2 C 29,0 km/h (5 Bft) 100,00 %
12.12.2016 06:52 3,3 C 94 % 1020,7 hPa 0,0 l/m 21,4 km/h (4 Bft) W-SW 248 0 min 0,000 mm 0,0 UV-I 0 W/m 2,4 C -5,9 C 29,0 km/h (5 Bft) 100,00 %
12.12.2016 06:54 3,3 C 94 % 1020,6 hPa 0,0 l/m 20,3 km/h (4 Bft) W-SW 242 0 min 0,000 mm 0,0 UV-I 0 W/m 2,4 C -5,5 C 30,6 km/h (5 Bft) 100,00 %
12.12.2016 06:56 3,3 C 94 % 1020,7 hPa 0,0 l/m 21,8 km/h (4 Bft) SW 230 0 min 0,000 mm 0,0 UV-I 0 W/m 2,4 C -6,1 C 30,6 km/h (5 Bft) 100,00 %
12.12.2016 06:58 3,3 C 94 % 1020,7 hPa 0,0 l/m 24,0 km/h (4 Bft) SW 226 0 min 0,000 mm 0,0 UV-I 0 W/m 2,4 C -6,9 C 32,2 km/h (5 Bft) 100,00 %
12.12.2016 07:00 3,3 C 94 % 1020,7 hPa 0,0 l/m 20,7 km/h (4 Bft) W-SW 241 0 min 0,000 mm 0,0 UV-I 0 W/m 2,4 C -5,7 C 33,8 km/h (5 Bft) 100,00 %
12.12.2016 07:02 3,4 C 94 % 1020,7 hPa 0,0 l/m 22,6 km/h (4 Bft) SW 229 0 min 0,000 mm 0,0 UV-I 0 W/m 2,5 C -6,3 C 33,8 km/h (5 Bft) 98,31 %
12.12.2016 07:04 3,4 C 94 % 1020,7 hPa 0,0 l/m 17,5 km/h (3 Bft) W-SW 238 0 min 0,000 mm 0,0 UV-I 0 W/m 2,5 C -4,1 C 27,4 km/h (4 Bft) 97,56 %
12.12.2016 07:06 3,4 C 94 % 1020,7 hPa 0,0 l/m 18,8 km/h (3 Bft) W-SW 257 0 min 0,000 mm 0,0 UV-I 0 W/m 2,5 C -4,7 C 25,7 km/h (4 Bft) 100,00 %
12.12.2016 07:08 3,4 C 94 % 1020,8 hPa 0,0 l/m 17,7 km/h (3 Bft) SW 236 0 min 0,000 mm 0,0 UV-I 0 W/m 2,5 C -4,2 C 25,7 km/h (4 Bft) 100,00 %
12.12.2016 07:10 3,4 C 94 % 1020,8 hPa 0,0 l/m 18,5 km/h (3 Bft) W 259 0 min 0,000 mm 0,0 UV-I 0 W/m 2,5 C -4,6 C 27,4 km/h (4 Bft) 100,00 %
12.12.2016 07:12 3,4 C 94 % 1020,9 hPa 0,0 l/m 15,8 km/h (3 Bft) SW 235 0 min 0,000 mm 0,0 UV-I 0 W/m 2,5 C -3,3 C 25,7 km/h (4 Bft) 95,74 %
12.12.2016 07:14 3,4 C 94 % 1020,9 hPa 0,0 l/m 16,7 km/h (3 Bft) W-SW 252 0 min 0,000 mm 0,0 UV-I 0 W/m 2,5 C -3,7 C 25,7 km/h (4 Bft) 100,00 %
12.12.2016 07:16 3,5 C 94 % 1020,9 hPa 0,0 l/m 15,2 km/h (3 Bft) W-SW 240 0 min 0,000 mm 0,0 UV-I 0 W/m 2,6 C -2,8 C 20,9 km/h (4 Bft) 97,37 %
12.12.2016 07:18 3,4 C 94 % 1021,0 hPa 0,0 l/m 19,1 km/h (3 Bft) W-SW 237 0 min 0,000 mm 0,0 UV-I 0 W/m 2,5 C -4,9 C 29,0 km/h (5 Bft) 100,00 %
12.12.2016 07:20 3,5 C 94 % 1021,1 hPa 0,0 l/m 16,6 km/h (3 Bft) SW 236 0 min 0,000 mm 0,0 UV-I 0 W/m 2,6 C -3,6 C 24,1 km/h (4 Bft) 100,00 %
12.12.2016 07:22 3,5 C 94 % 1021,0 hPa 0,0 l/m 17,9 km/h (3 Bft) W-SW 257 0 min 0,000 mm 0,0 UV-I 0 W/m 2,6 C -4,2 C 25,7 km/h (4 Bft) 100,00 %
12.12.2016 07:24 3,5 C 94 % 1020,9 hPa 0,0 l/m 13,0 km/h (3 Bft) SW 225 0 min 0,000 mm 0,0 UV-I 0 W/m 2,6 C -1,6 C 17,7 km/h (3 Bft) 100,00 %
12.12.2016 07:26 3,5 C 94 % 1021,0 hPa 0,0 l/m 18,1 km/h (3 Bft) W 273 0 min 0,000 mm 0,0 UV-I 0 W/m 2,6 C -4,3 C 29,0 km/h (5 Bft) 100,00 %
12.12.2016 07:28 3,5 C 94 % 1021,0 hPa 0,0 l/m 15,6 km/h (3 Bft) W-SW 247 0 min 0,000 mm 0,0 UV-I 0 W/m 2,6 C -3,1 C 20,9 km/h (4 Bft) 100,00 %
12.12.2016 07:30 3,6 C 94 % 1021,0 hPa 0,0 l/m 15,0 km/h (3 Bft) W-SW 256 0 min 0,000 mm 0,0 UV-I 0 W/m 2,7 C -2,6 C 25,7 km/h (4 Bft) 100,00 %
12.12.2016 07:32 3,6 C 94 % 1021,0 hPa 0,0 l/m 14,8 km/h (3 Bft) W-SW 241 0 min 0,000 mm 0,0 UV-I 0 W/m 2,7 C -2,5 C 19,3 km/h (3 Bft) 98,21 %
12.12.2016 07:34 3,6 C 94 % 1021,0 hPa 0,0 l/m 14,8 km/h (3 Bft) W-SW 249 0 min 0,000 mm 0,0 UV-I 0 W/m 2,7 C -2,5 C 25,7 km/h (4 Bft) 100,00 %
12.12.2016 07:36 3,6 C 94 % 1021,0 hPa 0,0 l/m 17,2 km/h (3 Bft) W-SW 237 0 min 0,000 mm 0,0 UV-I 0 W/m 2,7 C -3,7 C 25,7 km/h (4 Bft) 100,00 %
12.12.2016 07:38 3,6 C 94 % 1021,0 hPa 0,0 l/m 15,6 km/h (3 Bft) W-SW 248 0 min 0,000 mm 0,0 UV-I 0 W/m 2,7 C -2,9 C 27,4 km/h (4 Bft) 100,00 %
12.12.2016 07:40 3,6 C 94 % 1021,1 hPa 0,0 l/m 15,1 km/h (3 Bft) SW 236 0 min 0,000 mm 0,0 UV-I 0 W/m 2,7 C -2,7 C 24,1 km/h (4 Bft) 100,00 %
12.12.2016 07:42 3,6 C 94 % 1021,1 hPa 0,0 l/m 18,6 km/h (3 Bft) S-SW 211 0 min 0,000 mm 0,0 UV-I 0 W/m 2,7 C -4,4 C 25,7 km/h (4 Bft) 100,00 %
12.12.2016 07:44 3,6 C 94 % 1021,2 hPa 0,0 l/m 19,4 km/h (3 Bft) W-SW 251 0 min 0,000 mm 0,0 UV-I 0 W/m 2,7 C -4,7 C 27,4 km/h (4 Bft) 95,12 %
12.12.2016 07:46 3,6 C 94 % 1021,1 hPa 0,0 l/m 16,5 km/h (3 Bft) W-SW 240 0 min 0,000 mm 0,0 UV-I 0 W/m 2,7 C -3,4 C 24,1 km/h (4 Bft) 100,00 %
12.12.2016 07:48 3,6 C 94 % 1021,2 hPa 0,0 l/m 17,3 km/h (3 Bft) W 259 0 min 0,000 mm 0,0 UV-I 0 W/m 2,7 C -3,8 C 27,4 km/h (4 Bft) 100,00 %
12.12.2016 07:50 3,7 C 94 % 1021,2 hPa 0,0 l/m 14,0 km/h (3 Bft) SW 235 0 min 0,000 mm 0,0 UV-I 0 W/m 2,8 C -1,9 C 22,5 km/h (4 Bft) 100,00 %
12.12.2016 07:52 3,7 C 94 % 1021,3 hPa 0,0 l/m 15,7 km/h (3 Bft) W 262 0 min 0,000 mm 0,0 UV-I 0 W/m 2,8 C -2,9 C 24,1 km/h (4 Bft) 100,00 %
12.12.2016 07:54 3,7 C 94 % 1021,4 hPa 0,0 l/m 13,7 km/h (3 Bft) S-SW 211 0 min 0,000 mm 0,0 UV-I 0 W/m 2,8 C -1,8 C 19,3 km/h (3 Bft) 100,00 %
12.12.2016 07:56 3,7 C 94 % 1021,4 hPa 0,0 l/m 14,5 km/h (3 Bft) W-SW 254 0 min 0,000 mm 0,0 UV-I 0 W/m 2,8 C -2,2 C 20,9 km/h (4 Bft) 100,00 %
12.12.2016 07:58 3,7 C 94 % 1021,3 hPa 0,0 l/m 17,0 km/h (3 Bft) W-SW 243 0 min 0,000 mm 0,0 UV-I 0 W/m 2,8 C -3,5 C 25,7 km/h (4 Bft) 100,00 %
12.12.2016 08:00 3,7 C 94 % 1021,4 hPa 0,0 l/m 16,8 km/h (3 Bft) W-SW 246 0 min 0,000 mm 0,0 UV-I 0 W/m 2,8 C -3,4 C 24,1 km/h (4 Bft) 100,00 %
12.12.2016 08:02 3,7 C 93 % 1021,3 hPa 0,0 l/m 13,5 km/h (3 Bft) W 262 0 min 0,000 mm 0,0 UV-I 0 W/m 2,7 C -1,7 C 20,9 km/h (4 Bft) 100,00 %
12.12.2016 08:04 3,7 C 93 % 1021,3 hPa 0,0 l/m 14,9 km/h (3 Bft) W-SW 240 0 min 0,000 mm 0,0 UV-I 4 W/m 2,7 C -2,4 C 22,5 km/h (4 Bft) 100,00 %
12.12.2016 08:06 3,7 C 93 % 1021,3 hPa 0,0 l/m 16,1 km/h (3 Bft) W 269 0 min 0,000 mm 0,0 UV-I 5 W/m 2,7 C -3,1 C 24,1 km/h (4 Bft) 98,11 %
12.12.2016 08:08 3,8 C 93 % 1021,4 hPa 0,0 l/m 14,9 km/h (3 Bft) W-SW 244 0 min 0,000 mm 0,0 UV-I 7 W/m 2,8 C -2,3 C 19,3 km/h (3 Bft) 100,00 %
12.12.2016 08:10 3,8 C 93 % 1021,5 hPa 0,0 l/m 14,0 km/h (3 Bft) S-SW 200 0 min 0,000 mm 0,0 UV-I 9 W/m 2,8 C -1,8 C 24,1 km/h (4 Bft) 100,00 %
12.12.2016 08:12 3,8 C 93 % 1021,4 hPa 0,0 l/m 15,4 km/h (3 Bft) SW 235 0 min 0,000 mm 0,0 UV-I 9 W/m 2,8 C -2,6 C 22,5 km/h (4 Bft) 97,56 %
12.12.2016 08:14 3,8 C 93 % 1021,4 hPa 0,0 l/m 15,4 km/h (3 Bft) W-SW 250 0 min 0,000 mm 0,0 UV-I 11 W/m 2,8 C -2,6 C 22,5 km/h (4 Bft) 100,00 %
12.12.2016 08:16 3,8 C 93 % 1021,5 hPa 0,0 l/m 18,5 km/h (3 Bft) SW 223 0 min 0,000 mm 0,0 UV-I 11 W/m 2,8 C -4,1 C 30,6 km/h (5 Bft) 96,23 %
12.12.2016 08:18 3,8 C 93 % 1021,5 hPa 0,0 l/m 13,8 km/h (3 Bft) W-SW 242 0 min 0,000 mm 0,0 UV-I 11 W/m 2,8 C -1,7 C 19,3 km/h (3 Bft) 100,00 %
12.12.2016 08:20 3,9 C 93 % 1021,5 hPa 0,0 l/m 16,3 km/h (3 Bft) W-SW 243 0 min 0,000 mm 0,0 UV-I 12 W/m 2,9 C -2,9 C 24,1 km/h (4 Bft) 97,62 %
12.12.2016 08:22 3,9 C 93 % 1021,6 hPa 0,0 l/m 13,8 km/h (3 Bft) W 259 0 min 0,000 mm 0,0 UV-I 12 W/m 2,9 C -1,6 C 17,7 km/h (3 Bft) 97,56 %
12.12.2016 08:24 3,9 C 93 % 1021,6 hPa 0,0 l/m 15,2 km/h (3 Bft) W-SW 242 0 min 0,000 mm 0,0 UV-I 12 W/m 2,9 C -2,4 C 22,5 km/h (4 Bft) 94,34 %
12.12.2016 08:26 3,9 C 93 % 1021,6 hPa 0,0 l/m 13,5 km/h (3 Bft) W-SW 245 0 min 0,000 mm 0,0 UV-I 13 W/m 2,9 C -1,4 C 19,3 km/h (3 Bft) 98,11 %
12.12.2016 08:28 3,9 C 93 % 1021,6 hPa 0,0 l/m 17,1 km/h (3 Bft) SW 236 0 min 0,000 mm 0,0 UV-I 16 W/m 2,9 C -3,3 C 25,7 km/h (4 Bft) 97,14 %
12.12.2016 08:30 3,9 C 93 % 1021,7 hPa 0,0 l/m 16,0 km/h (3 Bft) SW 230 0 min 0,000 mm 0,0 UV-I 15 W/m 2,9 C -2,8 C 24,1 km/h (4 Bft) 96,00 %
12.12.2016 08:32 4,0 C 93 % 1021,7 hPa 0,0 l/m 16,3 km/h (3 Bft) W 259 0 min 0,000 mm 0,0 UV-I 12 W/m 3,0 C -2,8 C 22,5 km/h (4 Bft) 98,11 %
12.12.2016 08:34 4,0 C 93 % 1021,7 hPa 0,0 l/m 14,3 km/h (3 Bft) SW 219 0 min 0,000 mm 0,0 UV-I 12 W/m 3,0 C -1,8 C 20,9 km/h (4 Bft) 96,15 %
12.12.2016 08:36 4,0 C 93 % 1021,8 hPa 0,0 l/m 12,5 km/h (3 Bft) W-SW 256 0 min 0,000 mm 0,0 UV-I 13 W/m 3,0 C -0,7 C 17,7 km/h (3 Bft) 98,53 %
12.12.2016 08:38 4,0 C 93 % 1021,9 hPa 0,0 l/m 13,1 km/h (3 Bft) SW 219 0 min 0,000 mm 0,0 UV-I 12 W/m 3,0 C -1,1 C 19,3 km/h (3 Bft) 95,12 %
12.12.2016 08:40 4,0 C 93 % 1021,9 hPa 0,0 l/m 14,3 km/h (3 Bft) W-SW 242 0 min 0,000 mm 0,0 UV-I 10 W/m 3,0 C -1,8 C 19,3 km/h (3 Bft) 94,00 %
12.12.2016 08:42 4,1 C 93 % 1021,8 hPa 0,0 l/m 12,3 km/h (3 Bft) W-SW 245 0 min 0,000 mm 0,0 UV-I 9 W/m 3,1 C -0,5 C 19,3 km/h (3 Bft) 95,74 %
12.12.2016 08:44 4,1 C 93 % 1021,8 hPa 0,0 l/m 13,7 km/h (3 Bft) W-SW 257 0 min 0,000 mm 0,0 UV-I 9 W/m 3,1 C -1,3 C 22,5 km/h (4 Bft) 97,87 %
12.12.2016 08:46 4,1 C 93 % 1021,8 hPa 0,0 l/m 15,6 km/h (3 Bft) W 266 0 min 0,000 mm 0,0 UV-I 9 W/m 3,1 C -2,3 C 29,0 km/h (5 Bft) 95,12 %
12.12.2016 08:48 4,1 C 93 % 1021,8 hPa 0,0 l/m 12,3 km/h (3 Bft) W-SW 258 0 min 0,000 mm 0,0 UV-I 9 W/m 3,1 C -0,5 C 20,9 km/h (4 Bft) 96,23 %
12.12.2016 08:50 4,2 C 93 % 1021,8 hPa 0,0 l/m 12,3 km/h (3 Bft) W 259 0 min 0,000 mm 0,0 UV-I 9 W/m 3,2 C -0,4 C 17,7 km/h (3 Bft) 97,37 %
12.12.2016 08:52 4,2 C 93 % 1021,9 hPa 0,0 l/m 12,6 km/h (3 Bft) W-SW 241 0 min 0,000 mm 0,0 UV-I 9 W/m 3,2 C -0,5 C 16,1 km/h (3 Bft) 98,11 %
12.12.2016 08:54 4,2 C 93 % 1021,8 hPa 0,0 l/m 12,7 km/h (3 Bft) W-SW 240 0 min 0,000 mm 0,0 UV-I 10 W/m 3,2 C -0,6 C 22,5 km/h (4 Bft) 98,00 %
12.12.2016 08:56 4,2 C 92 % 1021,8 hPa 0,0 l/m 10,8 km/h (2 Bft) W-SW 246 0 min 0,000 mm 0,0 UV-I 11 W/m 3,0 C 0,6 C 16,1 km/h (3 Bft) 97,87 %
12.12.2016 08:58 4,2 C 92 % 1021,8 hPa 0,0 l/m 12,5 km/h (3 Bft) SW 230 0 min 0,000 mm 0,0 UV-I 11 W/m 3,0 C -0,5 C 19,3 km/h (3 Bft) 100,00 %
12.12.2016 09:00 4,2 C 92 % 1021,9 hPa 0,0 l/m 13,8 km/h (3 Bft) W-SW 254 0 min 0,000 mm 0,0 UV-I 11 W/m 3,0 C -1,2 C 24,1 km/h (4 Bft) 100,00 %
12.12.2016 09:02 4,3 C 92 % 1021,9 hPa 0,0 l/m 17,1 km/h (3 Bft) SW 221 0 min 0,000 mm 0,0 UV-I 11 W/m 3,1 C -2,8 C 25,7 km/h (4 Bft) 100,00 %
12.12.2016 09:04 4,3 C 92 % 1021,8 hPa 0,0 l/m 12,0 km/h (2 Bft) W-SW 252 0 min 0,000 mm 0,0 UV-I 12 W/m 3,1 C -0,0 C 20,9 km/h (4 Bft) 100,00 %
12.12.2016 09:06 4,3 C 92 % 1021,9 hPa 0,0 l/m 17,2 km/h (3 Bft) SW 229 0 min 0,000 mm 0,0 UV-I 13 W/m 3,1 C -2,9 C 25,7 km/h (4 Bft) 100,00 %
12.12.2016 09:08 4,3 C 92 % 1021,9 hPa 0,0 l/m 15,2 km/h (3 Bft) SW 231 0 min 0,000 mm 0,0 UV-I 14 W/m 3,1 C -1,9 C 24,1 km/h (4 Bft) 100,00 %
12.12.2016 09:10 4,3 C 92 % 1021,9 hPa 0,0 l/m 16,5 km/h (3 Bft) W-SW 247 0 min 0,000 mm 0,0 UV-I 13 W/m 3,1 C -2,5 C 25,7 km/h (4 Bft) 100,00 %
12.12.2016 09:12 4,3 C 92 % 1021,9 hPa 0,0 l/m 19,9 km/h (4 Bft) W 271 0 min 0,000 mm 0,0 UV-I 13 W/m 3,1 C -4,0 C 30,6 km/h (5 Bft) 97,87 %
12.12.2016 09:14 4,3 C 92 % 1022,0 hPa 0,0 l/m 18,3 km/h (3 Bft) W-SW 257 0 min 0,000 mm 0,0 UV-I 13 W/m 3,1 C -3,4 C 27,4 km/h (4 Bft) 98,11 %
12.12.2016 09:16 4,4 C 92 % 1022,0 hPa 0,0 l/m 19,0 km/h (3 Bft) W-SW 246 0 min 0,000 mm 0,0 UV-I 14 W/m 3,2 C -3,5 C 29,0 km/h (5 Bft) 100,00 %
12.12.2016 09:18 4,4 C 92 % 1021,9 hPa 0,0 l/m 18,9 km/h (3 Bft) W-SW 257 0 min 0,000 mm 0,0 UV-I 14 W/m 3,2 C -3,5 C 35,4 km/h (5 Bft) 100,00 %
12.12.2016 09:20 4,4 C 92 % 1022,1 hPa 0,0 l/m 20,3 km/h (4 Bft) W-SW 246 0 min 0,000 mm 0,0 UV-I 13 W/m 3,2 C -4,1 C 29,0 km/h (5 Bft) 100,00 %
12.12.2016 09:22 4,5 C 92 % 1022,1 hPa 0,0 l/m 19,1 km/h (3 Bft) W-SW 250 0 min 0,000 mm 0,0 UV-I 12 W/m 3,3 C -3,4 C 30,6 km/h (5 Bft) 100,00 %
12.12.2016 09:24 4,6 C 92 % 1022,1 hPa 0,0 l/m 17,9 km/h (3 Bft) W-SW 245 0 min 0,000 mm 0,0 UV-I 14 W/m 3,4 C -2,8 C 27,4 km/h (4 Bft) 100,00 %
12.12.2016 09:26 4,6 C 92 % 1022,1 hPa 0,0 l/m 17,8 km/h (3 Bft) W 265 0 min 0,000 mm 0,0 UV-I 12 W/m 3,4 C -2,8 C 29,0 km/h (5 Bft) 100,00 %
12.12.2016 09:28 4,6 C 91 % 1022,1 hPa 0,0 l/m 19,4 km/h (3 Bft) W 280 0 min 0,000 mm 0,0 UV-I 14 W/m 3,3 C -3,4 C 33,8 km/h (5 Bft) 100,00 %
12.12.2016 09:30 4,6 C 91 % 1022,2 hPa 0,0 l/m 17,2 km/h (3 Bft) W 259 0 min 0,000 mm 0,0 UV-I 13 W/m 3,3 C -2,5 C 24,1 km/h (4 Bft) 96,43 %
12.12.2016 09:32 4,6 C 91 % 1022,1 hPa 0,0 l/m 17,8 km/h (3 Bft) W-NW 301 0 min 0,000 mm 0,0 UV-I 16 W/m 3,3 C -2,8 C 29,0 km/h (5 Bft) 100,00 %
12.12.2016 09:34 4,6 C 91 % 1022,2 hPa 0,0 l/m 22,1 km/h (4 Bft) W-SW 248 0 min 0,000 mm 0,0 UV-I 21 W/m 3,3 C -4,5 C 29,0 km/h (5 Bft) 100,00 %
12.12.2016 09:36 4,7 C 92 % 1022,2 hPa 0,0 l/m 20,3 km/h (4 Bft) W 264 0 min 0,000 mm 0,0 UV-I 25 W/m 3,5 C -3,7 C 25,7 km/h (4 Bft) 100,00 %
12.12.2016 09:38 4,7 C 91 % 1022,2 hPa 0,0 l/m 21,4 km/h (4 Bft) W 259 0 min 0,000 mm 0,0 UV-I 19 W/m 3,4 C -4,1 C 30,6 km/h (5 Bft) 100,00 %
12.12.2016 09:40 4,7 C 91 % 1022,2 hPa 0,0 l/m 18,2 km/h (3 Bft) W 262 0 min 0,000 mm 0,0 UV-I 14 W/m 3,4 C -2,8 C 25,7 km/h (4 Bft) 100,00 %
12.12.2016 09:42 4,7 C 91 % 1022,3 hPa 0,0 l/m 18,7 km/h (3 Bft) W-SW 252 0 min 0,000 mm 0,0 UV-I 14 W/m 3,4 C -3,0 C 24,1 km/h (4 Bft) 98,11 %
12.12.2016 09:44 4,7 C 91 % 1022,3 hPa 0,0 l/m 22,7 km/h (4 Bft) W 277 0 min 0,000 mm 0,0 UV-I 18 W/m 3,4 C -4,6 C 29,0 km/h (5 Bft) 97,73 %
12.12.2016 09:46 4,7 C 91 % 1022,4 hPa 0,0 l/m 19,5 km/h (3 Bft) W-SW 248 0 min 0,000 mm 0,0 UV-I 19 W/m 3,4 C -3,4 C 30,6 km/h (5 Bft) 100,00 %
12.12.2016 09:48 4,7 C 91 % 1022,4 hPa 0,0 l/m 15,8 km/h (3 Bft) W-SW 242 0 min 0,000 mm 0,0 UV-I 18 W/m 3,4 C -1,7 C 27,4 km/h (4 Bft) 100,00 %
12.12.2016 09:50 4,7 C 91 % 1022,4 hPa 0,0 l/m 14,6 km/h (3 Bft) W-SW 255 0 min 0,000 mm 0,0 UV-I 18 W/m 3,4 C -1,1 C 24,1 km/h (4 Bft) 100,00 %
12.12.2016 09:52 4,7 C 91 % 1022,5 hPa 0,0 l/m 17,5 km/h (3 Bft) W 267 0 min 0,000 mm 0,0 UV-I 17 W/m 3,4 C -2,5 C 25,7 km/h (4 Bft) 100,00 %
12.12.2016 09:54 4,7 C 91 % 1022,6 hPa 0,0 l/m 16,2 km/h (3 Bft) W 264 0 min 0,000 mm 0,0 UV-I 18 W/m 3,4 C -1,9 C 20,9 km/h (4 Bft) 100,00 %
12.12.2016 09:56 4,7 C 91 % 1022,6 hPa 0,0 l/m 18,5 km/h (3 Bft) SW 221 0 min 0,000 mm 0,0 UV-I 19 W/m 3,4 C -2,9 C 25,7 km/h (4 Bft) 100,00 %
12.12.2016 09:58 4,7 C 91 % 1022,6 hPa 0,0 l/m 14,8 km/h (3 Bft) W-SW 238 0 min 0,000 mm 0,0 UV-I 20 W/m 3,4 C -1,2 C 20,9 km/h (4 Bft) 95,12 %
12.12.2016 10:00 4,7 C 91 % 1022,6 hPa 0,0 l/m 18,7 km/h (3 Bft) SW 228 0 min 0,025 mm 0,0 UV-I 25 W/m 3,4 C -3,0 C 25,7 km/h (4 Bft) 100,00 %
12.12.2016 10:02 4,7 C 91 % 1022,7 hPa 0,0 l/m 18,7 km/h (3 Bft) W 261 0 min 0,000 mm 0,0 UV-I 21 W/m 3,4 C -3,0 C 27,4 km/h (4 Bft) 97,56 %
12.12.2016 10:04 4,7 C 91 % 1022,7 hPa 0,0 l/m 20,3 km/h (4 Bft) SW 225 0 min 0,000 mm 0,0 UV-I 19 W/m 3,4 C -3,7 C 29,0 km/h (5 Bft) 100,00 %
12.12.2016 10:06 4,7 C 91 % 1022,6 hPa 0,0 l/m 18,6 km/h (3 Bft) W 269 0 min 0,000 mm 0,0 UV-I 24 W/m 3,4 C -3,0 C 27,4 km/h (4 Bft) 100,00 %
12.12.2016 10:08 4,7 C 91 % 1022,7 hPa 0,0 l/m 22,0 km/h (4 Bft) SW 229 0 min 0,000 mm 0,0 UV-I 26 W/m 3,4 C -4,3 C 33,8 km/h (5 Bft) 100,00 %
12.12.2016 10:10 4,8 C 91 % 1022,7 hPa 0,0 l/m 17,0 km/h (3 Bft) SW 227 0 min 0,000 mm 0,0 UV-I 25 W/m 3,5 C -2,1 C 29,0 km/h (5 Bft) 100,00 %
12.12.2016 10:12 4,8 C 91 % 1022,7 hPa 0,0 l/m 20,0 km/h (4 Bft) S-SW 211 0 min 0,000 mm 0,0 UV-I 23 W/m 3,5 C -3,4 C 32,2 km/h (5 Bft) 100,00 %
12.12.2016 10:14 4,8 C 91 % 1022,6 hPa 0,0 l/m 20,6 km/h (4 Bft) W-SW 239 0 min 0,000 mm 0,0 UV-I 33 W/m 3,5 C -3,7 C 25,7 km/h (4 Bft) 100,00 %
12.12.2016 10:16 4,8 C 91 % 1022,6 hPa 0,0 l/m 22,7 km/h (4 Bft) W-SW 243 0 min 0,000 mm 0,0 UV-I 39 W/m 3,5 C -4,4 C 33,8 km/h (5 Bft) 98,08 %
12.12.2016 10:18 4,8 C 91 % 1022,7 hPa 0,0 l/m 16,8 km/h (3 Bft) W 263 0 min 0,000 mm 0,0 UV-I 31 W/m 3,5 C -2,0 C 27,4 km/h (4 Bft) 97,62 %
12.12.2016 10:20 4,8 C 91 % 1022,6 hPa 0,0 l/m 17,0 km/h (3 Bft) SW 236 0 min 0,000 mm 0,0 UV-I 31 W/m 3,5 C -2,1 C 22,5 km/h (4 Bft) 100,00 %
12.12.2016 10:22 4,8 C 91 % 1022,6 hPa 0,0 l/m 24,3 km/h (4 Bft) W-SW 253 0 min 0,000 mm 0,0 UV-I 32 W/m 3,5 C -5,0 C 38,6 km/h (5 Bft) 96,00 %
12.12.2016 10:24 4,8 C 91 % 1022,6 hPa 0,0 l/m 18,8 km/h (3 Bft) W-SW 253 0 min 0,000 mm 0,0 UV-I 30 W/m 3,5 C -2,9 C 25,7 km/h (4 Bft) 100,00 %
12.12.2016 10:26 4,8 C 91 % 1022,6 hPa 0,0 l/m 20,0 km/h (4 Bft) W-SW 240 0 min 0,000 mm 0,0 UV-I 22 W/m 3,5 C -3,4 C 30,6 km/h (5 Bft) 100,00 %
12.12.2016 10:28 4,9 C 91 % 1022,6 hPa 0,0 l/m 14,8 km/h (3 Bft) S-SW 205 0 min 0,000 mm 0,0 UV-I 22 W/m 3,6 C -0,9 C 20,9 km/h (4 Bft) 98,11 %
12.12.2016 10:30 4,8 C 91 % 1022,6 hPa 0,0 l/m 12,5 km/h (3 Bft) W-SW 240 0 min 0,000 mm 0,0 UV-I 24 W/m 3,5 C 0,2 C 17,7 km/h (3 Bft) 98,00 %
12.12.2016 10:32 4,8 C 91 % 1022,7 hPa 0,0 l/m 13,8 km/h (3 Bft) W-SW 239 0 min 0,000 mm 0,0 UV-I 21 W/m 3,5 C -0,5 C 19,3 km/h (3 Bft) 95,74 %
12.12.2016 10:34 4,8 C 91 % 1022,7 hPa 0,0 l/m 11,7 km/h (2 Bft) W-SW 238 0 min 0,000 mm 0,0 UV-I 20 W/m 3,5 C 0,7 C 16,1 km/h (3 Bft) 97,87 %
12.12.2016 10:36 4,8 C 91 % 1022,7 hPa 0,0 l/m 15,3 km/h (3 Bft) S-SW 205 0 min 0,000 mm 0,0 UV-I 25 W/m 3,5 C -1,3 C 22,5 km/h (4 Bft) 94,74 %
12.12.2016 10:38 4,8 C 91 % 1022,6 hPa 0,0 l/m 16,0 km/h (3 Bft) W-SW 245 0 min 0,000 mm 0,0 UV-I 24 W/m 3,5 C -1,7 C 22,5 km/h (4 Bft) 98,21 %
12.12.2016 10:40 4,8 C 92 % 1022,6 hPa 0,0 l/m 17,6 km/h (3 Bft) W-SW 238 0 min 0,000 mm 0,0 UV-I 25 W/m 3,6 C -2,4 C 33,8 km/h (5 Bft) 95,45 %
12.12.2016 10:42 4,7 C 92 % 1022,7 hPa 0,0 l/m 17,2 km/h (3 Bft) W-SW 258 0 min 0,000 mm 0,0 UV-I 22 W/m 3,5 C -2,4 C 30,6 km/h (5 Bft) 96,30 %
12.12.2016 10:44 4,7 C 92 % 1022,7 hPa 0,0 l/m 16,0 km/h (3 Bft) W-SW 251 0 min 0,000 mm 0,0 UV-I 22 W/m 3,5 C -1,8 C 22,5 km/h (4 Bft) 97,01 %
12.12.2016 10:46 4,7 C 92 % 1022,7 hPa 0,0 l/m 13,6 km/h (3 Bft) W 259 0 min 0,000 mm 0,0 UV-I 20 W/m 3,5 C -0,5 C 19,3 km/h (3 Bft) 97,44 %
12.12.2016 10:48 4,8 C 92 % 1022,7 hPa 0,0 l/m 14,2 km/h (3 Bft) SW 218 0 min 0,000 mm 0,0 UV-I 20 W/m 3,6 C -0,7 C 20,9 km/h (4 Bft) 97,87 %
12.12.2016 10:50 4,7 C 92 % 1022,7 hPa 0,0 l/m 14,3 km/h (3 Bft) W-SW 238 0 min 0,000 mm 0,0 UV-I 20 W/m 3,5 C -0,9 C 22,5 km/h (4 Bft) 94,64 %
12.12.2016 10:52 4,7 C 92 % 1022,7 hPa 0,0 l/m 14,8 km/h (3 Bft) SW 222 0 min 0,000 mm 0,0 UV-I 24 W/m 3,5 C -1,2 C 25,7 km/h (4 Bft) 95,12 %
12.12.2016 10:54 4,7 C 92 % 1022,8 hPa 0,0 l/m 13,7 km/h (3 Bft) W-SW 245 0 min 0,000 mm 0,0 UV-I 28 W/m 3,5 C -0,6 C 25,7 km/h (4 Bft) 96,23 %
12.12.2016 10:56 4,7 C 92 % 1022,7 hPa 0,0 l/m 14,6 km/h (3 Bft) SW 225 0 min 0,000 mm 0,0 UV-I 30 W/m 3,5 C -1,1 C 20,9 km/h (4 Bft) 97,37 %
12.12.2016 10:58 4,7 C 92 % 1022,8 hPa 0,0 l/m 14,7 km/h (3 Bft) W-SW 246 0 min 0,000 mm 0,0 UV-I 28 W/m 3,5 C -1,1 C 20,9 km/h (4 Bft) 98,00 %
12.12.2016 11:00 4,7 C 92 % 1022,7 hPa 0,0 l/m 12,5 km/h (3 Bft) SW 217 0 min 0,000 mm 0,0 UV-I 26 W/m 3,5 C 0,1 C 20,9 km/h (4 Bft) 93,62 %
12.12.2016 11:02 4,7 C 92 % 1022,8 hPa 0,0 l/m 13,8 km/h (3 Bft) W-SW 244 0 min 0,026 mm 0,0 UV-I 28 W/m 3,5 C -0,6 C 19,3 km/h (3 Bft) 98,00 %
12.12.2016 11:04 4,7 C 92 % 1022,7 hPa 0,0 l/m 14,3 km/h (3 Bft) W 281 0 min 0,000 mm 0,0 UV-I 30 W/m 3,5 C -0,9 C 20,9 km/h (4 Bft) 100,00 %
12.12.2016 11:06 4,7 C 92 % 1022,8 hPa 0,0 l/m 14,7 km/h (3 Bft) W-NW 286 0 min 0,000 mm 0,0 UV-I 24 W/m 3,5 C -1,1 C 20,9 km/h (4 Bft) 96,00 %
12.12.2016 11:08 4,7 C 92 % 1022,8 hPa 0,0 l/m 14,4 km/h (3 Bft) W-SW 244 0 min 0,000 mm 0,0 UV-I 27 W/m 3,5 C -1,0 C 20,9 km/h (4 Bft) 100,00 %
12.12.2016 11:10 4,7 C 92 % 1022,8 hPa 0,0 l/m 17,3 km/h (3 Bft) W-SW 251 0 min 0,000 mm 0,0 UV-I 25 W/m 3,5 C -2,4 C 27,4 km/h (4 Bft) 100,00 %
12.12.2016 11:12 4,7 C 92 % 1022,8 hPa 0,0 l/m 17,0 km/h (3 Bft) W 275 0 min 0,000 mm 0,0 UV-I 25 W/m 3,5 C -2,3 C 24,1 km/h (4 Bft) 98,11 %
12.12.2016 11:14 4,8 C 92 % 1022,7 hPa 0,0 l/m 15,5 km/h (3 Bft) W-SW 247 0 min 0,000 mm 0,0 UV-I 27 W/m 3,6 C -1,4 C 20,9 km/h (4 Bft) 100,00 %
12.12.2016 11:16 4,8 C 91 % 1022,8 hPa 0,0 l/m 19,9 km/h (4 Bft) W-SW 237 0 min 0,000 mm 0,0 UV-I 26 W/m 3,5 C -3,4 C 30,6 km/h (5 Bft) 100,00 %
12.12.2016 11:18 4,9 C 91 % 1022,7 hPa 0,0 l/m 20,1 km/h (4 Bft) W-SW 250 0 min 0,000 mm 0,0 UV-I 25 W/m 3,6 C -3,3 C 32,2 km/h (5 Bft) 100,00 %
12.12.2016 11:20 4,9 C 91 % 1022,7 hPa 0,0 l/m 18,2 km/h (3 Bft) SW 216 0 min 0,000 mm 0,0 UV-I 25 W/m 3,6 C -2,6 C 24,1 km/h (4 Bft) 100,00 %
12.12.2016 11:22 4,9 C 90 % 1022,7 hPa 0,0 l/m 18,1 km/h (3 Bft) W 261 0 min 0,000 mm 0,0 UV-I 24 W/m 3,4 C -2,5 C 25,7 km/h (4 Bft) 100,00 %
12.12.2016 11:24 5,0 C 90 % 1022,8 hPa 0,0 l/m 17,7 km/h (3 Bft) W 275 0 min 0,000 mm 0,0 UV-I 31 W/m 3,5 C -2,2 C 27,4 km/h (4 Bft) 100,00 %
12.12.2016 11:26 5,1 C 90 % 1022,8 hPa 0,0 l/m 19,2 km/h (3 Bft) W 268 0 min 0,000 mm 0,0 UV-I 42 W/m 3,6 C -2,7 C 29,0 km/h (5 Bft) 100,00 %
12.12.2016 11:28 5,1 C 90 % 1022,8 hPa 0,0 l/m 16,7 km/h (3 Bft) W-NW 282 0 min 0,000 mm 0,0 UV-I 44 W/m 3,6 C -1,6 C 22,5 km/h (4 Bft) 100,00 %
12.12.2016 11:30 5,1 C 90 % 1022,8 hPa 0,0 l/m 18,9 km/h (3 Bft) SW 217 0 min 0,000 mm 0,0 UV-I 41 W/m 3,6 C -2,6 C 24,1 km/h (4 Bft) 98,11 %
12.12.2016 11:32 5,1 C 90 % 1022,7 hPa 0,0 l/m 21,2 km/h (4 Bft) W 279 0 min 0,000 mm 0,0 UV-I 45 W/m 3,6 C -3,5 C 29,0 km/h (5 Bft) 100,00 %
12.12.2016 11:34 5,2 C 89 % 1022,7 hPa 0,0 l/m 22,1 km/h (4 Bft) W 273 0 min 0,000 mm 0,0 UV-I 40 W/m 3,5 C -3,7 C 32,2 km/h (5 Bft) 97,56 %
12.12.2016 11:36 5,2 C 89 % 1022,7 hPa 0,0 l/m 22,3 km/h (4 Bft) W 267 0 min 0,000 mm 0,0 UV-I 46 W/m 3,5 C -3,8 C 41,8 km/h (6 Bft) 100,00 %
12.12.2016 11:38 5,2 C 89 % 1022,7 hPa 0,2 l/m 22,8 km/h (4 Bft) SW 226 0 min 0,000 mm 0,0 UV-I 48 W/m 3,5 C -3,9 C 37,0 km/h (5 Bft) 100,00 %
12.12.2016 11:40 5,2 C 89 % 1022,7 hPa 0,0 l/m 16,0 km/h (3 Bft) W-SW 244 0 min 0,000 mm 0,0 UV-I 52 W/m 3,5 C -1,2 C 27,4 km/h (4 Bft) 100,00 %
12.12.2016 11:42 5,2 C 89 % 1022,7 hPa 0,0 l/m 22,7 km/h (4 Bft) W 259 0 min 0,000 mm 0,0 UV-I 60 W/m 3,5 C -3,9 C 30,6 km/h (5 Bft) 93,62 %
12.12.2016 11:44 5,3 C 89 % 1022,8 hPa 0,0 l/m 15,7 km/h (3 Bft) W-SW 250 0 min 0,000 mm 0,0 UV-I 66 W/m 3,6 C -0,9 C 22,5 km/h (4 Bft) 100,00 %
12.12.2016 11:46 5,3 C 89 % 1022,8 hPa 0,0 l/m 25,6 km/h (4 Bft) S-SW 212 0 min 0,000 mm 0,0 UV-I 64 W/m 3,6 C -4,7 C 40,2 km/h (6 Bft) 96,00 %
12.12.2016 11:48 5,3 C 89 % 1022,7 hPa 0,0 l/m 21,1 km/h (4 Bft) W-SW 242 0 min 0,000 mm 0,0 UV-I 61 W/m 3,6 C -3,2 C 30,6 km/h (5 Bft) 100,00 %
12.12.2016 11:50 5,3 C 89 % 1022,8 hPa 0,0 l/m 22,2 km/h (4 Bft) W-SW 240 0 min 0,000 mm 0,0 UV-I 53 W/m 3,6 C -3,6 C 32,2 km/h (5 Bft) 100,00 %
12.12.2016 11:52 5,3 C 89 % 1022,8 hPa 0,0 l/m 22,6 km/h (4 Bft) SW 221 0 min 0,000 mm 0,0 UV-I 56 W/m 3,6 C -3,7 C 30,6 km/h (5 Bft) 100,00 %
12.12.2016 11:54 5,3 C 89 % 1022,7 hPa 0,0 l/m 22,7 km/h (4 Bft) W-SW 243 0 min 0,000 mm 0,0 UV-I 60 W/m 3,6 C -3,8 C 35,4 km/h (5 Bft) 100,00 %
12.12.2016 11:56 5,3 C 89 % 1022,8 hPa 0,0 l/m 19,2 km/h (3 Bft) W-SW 253 0 min 0,000 mm 0,0 UV-I 64 W/m 3,6 C -2,5 C 30,6 km/h (5 Bft) 100,00 %
12.12.2016 11:58 5,3 C 88 % 1022,8 hPa 0,0 l/m 19,4 km/h (3 Bft) W 265 0 min 0,000 mm 0,0 UV-I 60 W/m 3,5 C -2,5 C 29,0 km/h (5 Bft) 100,00 %
12.12.2016 12:00 5,3 C 88 % 1022,8 hPa 0,0 l/m 18,7 km/h (3 Bft) W-SW 240 0 min 0,025 mm 0,0 UV-I 62 W/m 3,5 C -2,3 C 25,7 km/h (4 Bft) 100,00 %
12.12.2016 12:02 5,4 C 88 % 1022,8 hPa 0,0 l/m 21,6 km/h (4 Bft) SW 223 0 min 0,000 mm 0,0 UV-I 63 W/m 3,6 C -3,3 C 30,6 km/h (5 Bft) 100,00 %
12.12.2016 12:04 5,4 C 88 % 1022,7 hPa 0,0 l/m 24,6 km/h (4 Bft) W-SW 241 0 min 0,000 mm 0,0 UV-I 62 W/m 3,6 C -4,3 C 37,0 km/h (5 Bft) 97,78 %
12.12.2016 12:06 5,4 C 88 % 1022,7 hPa 0,0 l/m 18,3 km/h (3 Bft) W-SW 255 0 min 0,000 mm 0,0 UV-I 63 W/m 3,6 C -2,0 C 27,4 km/h (4 Bft) 97,56 %
12.12.2016 12:08 5,4 C 88 % 1022,7 hPa 0,0 l/m 23,4 km/h (4 Bft) W 272 0 min 0,000 mm 0,0 UV-I 69 W/m 3,6 C -3,9 C 38,6 km/h (5 Bft) 100,00 %
12.12.2016 12:10 5,4 C 88 % 1022,7 hPa 0,0 l/m 19,2 km/h (3 Bft) W 273 0 min 0,000 mm 0,0 UV-I 73 W/m 3,6 C -2,3 C 27,4 km/h (4 Bft) 100,00 %
12.12.2016 12:12 5,4 C 88 % 1022,8 hPa 0,0 l/m 23,7 km/h (4 Bft) W-SW 250 0 min 0,000 mm 0,0 UV-I 79 W/m 3,6 C -4,0 C 32,2 km/h (5 Bft) 100,00 %
12.12.2016 12:14 5,5 C 87 % 1022,8 hPa 0,0 l/m 22,1 km/h (4 Bft) W-SW 241 0 min 0,000 mm 0,0 UV-I 77 W/m 3,5 C -3,3 C 33,8 km/h (5 Bft) 100,00 %
12.12.2016 12:16 5,6 C 87 % 1022,8 hPa 0,0 l/m 21,4 km/h (4 Bft) W 261 0 min 0,000 mm 0,0 UV-I 76 W/m 3,6 C -2,9 C 27,4 km/h (4 Bft) 100,00 %
12.12.2016 12:18 5,6 C 87 % 1022,8 hPa 0,0 l/m 21,8 km/h (4 Bft) W-SW 240 0 min 0,000 mm 0,0 UV-I 77 W/m 3,6 C -3,1 C 33,8 km/h (5 Bft) 98,31 %
12.12.2016 12:20 5,6 C 87 % 1022,8 hPa 0,0 l/m 20,9 km/h (4 Bft) W 268 0 min 0,000 mm 0,0 UV-I 72 W/m 3,6 C -2,7 C 30,6 km/h (5 Bft) 100,00 %
12.12.2016 12:22 5,6 C 87 % 1022,8 hPa 0,0 l/m 23,5 km/h (4 Bft) W-SW 249 0 min 0,000 mm 0,0 UV-I 66 W/m 3,6 C -3,6 C 41,8 km/h (6 Bft) 100,00 %
12.12.2016 12:24 5,6 C 86 % 1022,9 hPa 0,0 l/m 27,8 km/h (4 Bft) W-SW 256 0 min 0,000 mm 0,0 UV-I 60 W/m 3,4 C -4,9 C 38,6 km/h (5 Bft) 100,00 %
12.12.2016 12:26 5,6 C 86 % 1022,9 hPa 0,0 l/m 22,9 km/h (4 Bft) W 263 0 min 0,000 mm 0,0 UV-I 59 W/m 3,4 C -3,4 C 37,0 km/h (5 Bft) 98,11 %
12.12.2016 12:28 5,6 C 87 % 1023,0 hPa 0,0 l/m 20,3 km/h (4 Bft) W 269 0 min 0,000 mm 0,0 UV-I 52 W/m 3,6 C -2,5 C 35,4 km/h (5 Bft) 100,00 %
12.12.2016 12:30 5,6 C 87 % 1023,0 hPa 0,0 l/m 19,1 km/h (3 Bft) W 267 0 min 0,000 mm 0,0 UV-I 48 W/m 3,6 C -2,0 C 30,6 km/h (5 Bft) 100,00 %
12.12.2016 12:32 5,6 C 87 % 1022,9 hPa 0,0 l/m 27,0 km/h (4 Bft) NW 324 0 min 0,000 mm 0,0 UV-I 60 W/m 3,6 C -4,7 C 41,8 km/h (6 Bft) 100,00 %
12.12.2016 12:34 5,6 C 87 % 1022,9 hPa 0,0 l/m 23,3 km/h (4 Bft) W-NW 285 0 min 0,000 mm 0,0 UV-I 73 W/m 3,6 C -3,6 C 35,4 km/h (5 Bft) 100,00 %
12.12.2016 12:36 5,6 C 87 % 1022,9 hPa 0,0 l/m 22,0 km/h (4 Bft) W-SW 253 0 min 0,000 mm 0,0 UV-I 79 W/m 3,6 C -3,1 C 35,4 km/h (5 Bft) 97,73 %
12.12.2016 12:38 5,6 C 87 % 1023,0 hPa 0,0 l/m 22,1 km/h (4 Bft) W 260 0 min 0,000 mm 0,0 UV-I 72 W/m 3,6 C -3,2 C 35,4 km/h (5 Bft) 98,11 %
12.12.2016 12:40 5,6 C 87 % 1023,0 hPa 0,0 l/m 23,6 km/h (4 Bft) W 261 0 min 0,000 mm 0,0 UV-I 60 W/m 3,6 C -3,7 C 32,2 km/h (5 Bft) 97,62 %
12.12.2016 12:42 5,6 C 87 % 1023,0 hPa 0,0 l/m 20,3 km/h (4 Bft) W 263 0 min 0,000 mm 0,0 UV-I 51 W/m 3,6 C -2,5 C 29,0 km/h (5 Bft) 96,55 %
12.12.2016 12:44 5,6 C 87 % 1023,1 hPa 0,0 l/m 16,5 km/h (3 Bft) W 263 0 min 0,000 mm 0,0 UV-I 47 W/m 3,6 C -0,9 C 29,0 km/h (5 Bft) 97,87 %
12.12.2016 12:46 5,6 C 87 % 1023,1 hPa 0,0 l/m 16,6 km/h (3 Bft) W 261 0 min 0,000 mm 0,0 UV-I 52 W/m 3,6 C -1,0 C 25,7 km/h (4 Bft) 97,22 %
12.12.2016 12:48 5,6 C 88 % 1023,1 hPa 0,0 l/m 18,1 km/h (3 Bft) W 272 0 min 0,000 mm 0,0 UV-I 59 W/m 3,8 C -1,6 C 30,6 km/h (5 Bft) 98,11 %
12.12.2016 12:50 5,6 C 88 % 1023,1 hPa 0,0 l/m 16,8 km/h (3 Bft) W 279 0 min 0,000 mm 0,0 UV-I 52 W/m 3,8 C -1,1 C 30,6 km/h (5 Bft) 96,23 %
12.12.2016 12:52 5,5 C 88 % 1023,2 hPa 0,0 l/m 22,3 km/h (4 Bft) SW 227 0 min 0,000 mm 0,0 UV-I 43 W/m 3,7 C -3,4 C 32,2 km/h (5 Bft) 97,56 %
12.12.2016 12:54 5,5 C 88 % 1023,2 hPa 0,0 l/m 24,7 km/h (4 Bft) W 269 0 min 0,000 mm 0,0 UV-I 35 W/m 3,7 C -4,2 C 35,4 km/h (5 Bft) 97,73 %
12.12.2016 12:56 5,4 C 88 % 1023,2 hPa 0,0 l/m 19,5 km/h (3 Bft) SW 231 0 min 0,000 mm 0,0 UV-I 40 W/m 3,6 C -2,5 C 32,2 km/h (5 Bft) 98,00 %
12.12.2016 12:58 5,4 C 88 % 1023,2 hPa 0,0 l/m 24,0 km/h (4 Bft) W-SW 243 0 min 0,000 mm 0,0 UV-I 36 W/m 3,6 C -4,1 C 37,0 km/h (5 Bft) 98,00 %
12.12.2016 13:00 5,4 C 89 % 1023,2 hPa 0,0 l/m 20,3 km/h (4 Bft) W-SW 240 0 min 0,051 mm 0,0 UV-I 39 W/m 3,7 C -2,8 C 33,8 km/h (5 Bft) 93,62 %
12.12.2016 13:02 5,4 C 89 % 1023,2 hPa 0,0 l/m 17,4 km/h (3 Bft) W 268 0 min 0,000 mm 0,0 UV-I 41 W/m 3,7 C -1,6 C 29,0 km/h (5 Bft) 97,87 %
12.12.2016 13:04 5,4 C 89 % 1023,2 hPa 0,0 l/m 19,5 km/h (3 Bft) W-SW 244 0 min 0,000 mm 0,0 UV-I 44 W/m 3,7 C -2,5 C 29,0 km/h (5 Bft) 94,74 %
12.12.2016 13:06 5,3 C 89 % 1023,2 hPa 0,0 l/m 17,0 km/h (3 Bft) W-SW 252 0 min 0,000 mm 0,0 UV-I 48 W/m 3,6 C -1,5 C 24,1 km/h (4 Bft) 97,56 %
12.12.2016 13:08 5,3 C 89 % 1023,3 hPa 0,0 l/m 17,4 km/h (3 Bft) W 274 0 min 0,000 mm 0,0 UV-I 42 W/m 3,6 C -1,7 C 22,5 km/h (4 Bft) 98,00 %
12.12.2016 13:10 5,3 C 89 % 1023,2 hPa 0,0 l/m 19,0 km/h (3 Bft) W-SW 253 0 min 0,000 mm 0,0 UV-I 37 W/m 3,6 C -2,4 C 29,0 km/h (5 Bft) 98,11 %
12.12.2016 13:12 5,3 C 90 % 1023,3 hPa 0,0 l/m 17,4 km/h (3 Bft) W 260 0 min 0,000 mm 0,0 UV-I 34 W/m 3,8 C -1,7 C 25,7 km/h (4 Bft) 100,00 %
12.12.2016 13:14 5,3 C 90 % 1023,3 hPa 0,0 l/m 19,8 km/h (3 Bft) W-SW 258 0 min 0,000 mm 0,0 UV-I 37 W/m 3,8 C -2,7 C 35,4 km/h (5 Bft) 100,00 %
12.12.2016 13:16 5,3 C 90 % 1023,4 hPa 0,0 l/m 19,5 km/h (3 Bft) W-SW 258 0 min 0,000 mm 0,0 UV-I 37 W/m 3,8 C -2,6 C 24,1 km/h (4 Bft) 100,00 %
12.12.2016 13:18 5,2 C 90 % 1023,3 hPa 0,0 l/m 17,6 km/h (3 Bft) W-SW 254 0 min 0,000 mm 0,0 UV-I 34 W/m 3,7 C -1,9 C 27,4 km/h (4 Bft) 100,00 %
12.12.2016 13:20 5,2 C 90 % 1023,4 hPa 0,0 l/m 18,1 km/h (3 Bft) W 263 0 min 0,000 mm 0,0 UV-I 33 W/m 3,7 C -2,1 C 29,0 km/h (5 Bft) 98,00 %
12.12.2016 13:22 5,2 C 90 % 1023,4 hPa 0,0 l/m 18,9 km/h (3 Bft) W-NW 285 0 min 0,000 mm 0,0 UV-I 32 W/m 3,7 C -2,5 C 29,0 km/h (5 Bft) 100,00 %
12.12.2016 13:24 5,2 C 90 % 1023,4 hPa 0,0 l/m 23,4 km/h (4 Bft) W-SW 257 0 min 0,000 mm 0,0 UV-I 34 W/m 3,7 C -4,2 C 33,8 km/h (5 Bft) 100,00 %
12.12.2016 13:26 5,2 C 90 % 1023,4 hPa 0,0 l/m 23,7 km/h (4 Bft) W-NW 290 0 min 0,000 mm 0,0 UV-I 39 W/m 3,7 C -4,3 C 33,8 km/h (5 Bft) 100,00 %
12.12.2016 13:28 5,2 C 90 % 1023,4 hPa 0,0 l/m 19,2 km/h (3 Bft) SW 228 0 min 0,000 mm 0,0 UV-I 47 W/m 3,7 C -2,6 C 29,0 km/h (5 Bft) 100,00 %
12.12.2016 13:30 5,2 C 90 % 1023,4 hPa 0,0 l/m 24,9 km/h (4 Bft) W-SW 258 0 min 0,000 mm 0,0 UV-I 49 W/m 3,7 C -4,6 C 35,4 km/h (5 Bft) 100,00 %
12.12.2016 13:32 5,2 C 90 % 1023,4 hPa 0,0 l/m 27,2 km/h (4 Bft) W-SW 254 0 min 0,000 mm 0,0 UV-I 50 W/m 3,7 C -5,3 C 40,2 km/h (6 Bft) 100,00 %
12.12.2016 13:34 5,2 C 90 % 1023,4 hPa 0,0 l/m 20,2 km/h (4 Bft) SW 229 0 min 0,000 mm 0,0 UV-I 52 W/m 3,7 C -3,0 C 25,7 km/h (4 Bft) 100,00 %
12.12.2016 13:36 5,2 C 90 % 1023,4 hPa 0,0 l/m 22,8 km/h (4 Bft) W-SW 252 0 min 0,000 mm 0,0 UV-I 48 W/m 3,7 C -3,9 C 32,2 km/h (5 Bft) 100,00 %
12.12.2016 13:38 5,2 C 90 % 1023,5 hPa 0,0 l/m 15,9 km/h (3 Bft) W-SW 253 0 min 0,000 mm 0,0 UV-I 49 W/m 3,7 C -1,1 C 22,5 km/h (4 Bft) 100,00 %
12.12.2016 13:40 5,2 C 90 % 1023,5 hPa 0,0 l/m 23,4 km/h (4 Bft) SW 235 0 min 0,000 mm 0,0 UV-I 35 W/m 3,7 C -4,2 C 37,0 km/h (5 Bft) 100,00 %
12.12.2016 13:42 5,3 C 90 % 1023,5 hPa 0,0 l/m 16,4 km/h (3 Bft) W-SW 246 0 min 0,000 mm 0,0 UV-I 33 W/m 3,8 C -1,2 C 24,1 km/h (4 Bft) 100,00 %
12.12.2016 13:44 5,3 C 90 % 1023,6 hPa 0,0 l/m 21,4 km/h (4 Bft) W-SW 248 0 min 0,000 mm 0,0 UV-I 39 W/m 3,8 C -3,3 C 30,6 km/h (5 Bft) 100,00 %
12.12.2016 13:46 5,3 C 90 % 1023,5 hPa 0,0 l/m 24,2 km/h (4 Bft) SW 224 0 min 0,000 mm 0,0 UV-I 49 W/m 3,8 C -4,3 C 33,8 km/h (5 Bft) 100,00 %
12.12.2016 13:48 5,3 C 90 % 1023,5 hPa 0,0 l/m 21,5 km/h (4 Bft) W-SW 246 0 min 0,000 mm 0,0 UV-I 53 W/m 3,8 C -3,4 C 33,8 km/h (5 Bft) 100,00 %
12.12.2016 13:50 5,3 C 90 % 1023,6 hPa 0,0 l/m 16,7 km/h (3 Bft) W 259 0 min 0,000 mm 0,0 UV-I 45 W/m 3,8 C -1,4 C 25,7 km/h (4 Bft) 98,53 %
12.12.2016 13:52 5,3 C 90 % 1023,6 hPa 0,0 l/m 18,1 km/h (3 Bft) W 259 0 min 0,000 mm 0,0 UV-I 41 W/m 3,8 C -2,0 C 33,8 km/h (5 Bft) 100,00 %
12.12.2016 13:54 5,3 C 90 % 1023,5 hPa 0,0 l/m 22,6 km/h (4 Bft) W 267 0 min 0,000 mm 0,0 UV-I 40 W/m 3,8 C -3,7 C 32,2 km/h (5 Bft) 100,00 %
12.12.2016 13:56 5,3 C 90 % 1023,6 hPa 0,0 l/m 18,0 km/h (3 Bft) W 269 0 min 0,000 mm 0,0 UV-I 40 W/m 3,8 C -2,0 C 30,6 km/h (5 Bft) 100,00 %
12.12.2016 13:58 5,3 C 90 % 1023,6 hPa 0,0 l/m 19,1 km/h (3 Bft) W 259 0 min 0,000 mm 0,0 UV-I 44 W/m 3,8 C -2,4 C 32,2 km/h (5 Bft) 100,00 %
12.12.2016 14:00 5,3 C 90 % 1023,6 hPa 0,0 l/m 16,9 km/h (3 Bft) W-SW 257 0 min 0,025 mm 0,0 UV-I 43 W/m 3,8 C -1,5 C 29,0 km/h (5 Bft) 98,11 %
12.12.2016 14:02 5,3 C 90 % 1023,8 hPa 0,0 l/m 16,5 km/h (3 Bft) W-SW 255 0 min 0,000 mm 0,0 UV-I 41 W/m 3,8 C -1,3 C 22,5 km/h (4 Bft) 97,56 %
12.12.2016 14:04 5,3 C 90 % 1023,8 hPa 0,0 l/m 18,7 km/h (3 Bft) W 273 0 min 0,000 mm 0,0 UV-I 37 W/m 3,8 C -2,3 C 25,7 km/h (4 Bft) 100,00 %
12.12.2016 14:06 5,3 C 90 % 1023,7 hPa 0,0 l/m 21,4 km/h (4 Bft) W-SW 250 0 min 0,000 mm 0,0 UV-I 37 W/m 3,8 C -3,3 C 29,0 km/h (5 Bft) 100,00 %
12.12.2016 14:08 5,3 C 90 % 1023,7 hPa 0,0 l/m 18,5 km/h (3 Bft) W 269 0 min 0,000 mm 0,0 UV-I 36 W/m 3,8 C -2,2 C 29,0 km/h (5 Bft) 98,00 %
12.12.2016 14:10 5,3 C 90 % 1023,7 hPa 0,0 l/m 21,9 km/h (4 Bft) W-NW 288 0 min 0,000 mm 0,0 UV-I 39 W/m 3,8 C -3,5 C 35,4 km/h (5 Bft) 100,00 %
12.12.2016 14:12 5,3 C 90 % 1023,6 hPa 0,0 l/m 19,1 km/h (3 Bft) W-SW 244 0 min 0,000 mm 0,0 UV-I 48 W/m 3,8 C -2,4 C 29,0 km/h (5 Bft) 100,00 %
12.12.2016 14:14 5,3 C 90 % 1023,8 hPa 0,0 l/m 18,8 km/h (3 Bft) W-SW 258 0 min 0,000 mm 0,0 UV-I 50 W/m 3,8 C -2,3 C 33,8 km/h (5 Bft) 100,00 %
12.12.2016 14:16 5,3 C 90 % 1023,8 hPa 0,0 l/m 21,5 km/h (4 Bft) W-SW 249 0 min 0,000 mm 0,0 UV-I 56 W/m 3,8 C -3,4 C 32,2 km/h (5 Bft) 100,00 %
12.12.2016 14:18 5,3 C 90 % 1023,9 hPa 0,0 l/m 18,6 km/h (3 Bft) W 264 0 min 0,000 mm 0,0 UV-I 58 W/m 3,8 C -2,2 C 32,2 km/h (5 Bft) 100,00 %
12.12.2016 14:20 5,3 C 90 % 1023,9 hPa 0,0 l/m 20,6 km/h (4 Bft) W-SW 254 0 min 0,000 mm 0,0 UV-I 63 W/m 3,8 C -3,0 C 29,0 km/h (5 Bft) 100,00 %
12.12.2016 14:22 5,3 C 90 % 1023,9 hPa 0,0 l/m 16,4 km/h (3 Bft) W-SW 254 0 min 0,000 mm 0,0 UV-I 64 W/m 3,8 C -1,2 C 24,1 km/h (4 Bft) 100,00 %
12.12.2016 14:24 5,4 C 90 % 1024,0 hPa 0,0 l/m 20,9 km/h (4 Bft) W-SW 254 0 min 0,000 mm 0,0 UV-I 69 W/m 3,9 C -3,0 C 30,6 km/h (5 Bft) 100,00 %
12.12.2016 14:26 5,4 C 90 % 1024,0 hPa 0,0 l/m 14,9 km/h (3 Bft) W 266 0 min 0,000 mm 0,0 UV-I 76 W/m 3,9 C -0,4 C 25,7 km/h (4 Bft) 100,00 %
12.12.2016 14:28 5,4 C 90 % 1023,9 hPa 0,0 l/m 17,4 km/h (3 Bft) S-SW 213 0 min 0,000 mm 0,0 UV-I 83 W/m 3,9 C -1,6 C 24,1 km/h (4 Bft) 95,74 %
12.12.2016 14:30 5,4 C 90 % 1024,0 hPa 0,0 l/m 14,6 km/h (3 Bft) W-SW 237 0 min 0,000 mm 0,0 UV-I 87 W/m 3,9 C -0,2 C 19,3 km/h (3 Bft) 100,00 %
12.12.2016 14:32 5,4 C 90 % 1023,9 hPa 0,0 l/m 17,0 km/h (3 Bft) W-SW 258 0 min 0,000 mm 0,0 UV-I 83 W/m 3,9 C -1,4 C 25,7 km/h (4 Bft) 100,00 %
12.12.2016 14:34 5,4 C 90 % 1024,0 hPa 0,0 l/m 20,8 km/h (4 Bft) W 265 0 min 0,000 mm 0,0 UV-I 88 W/m 3,9 C -3,0 C 27,4 km/h (4 Bft) 98,04 %
12.12.2016 14:36 5,4 C 90 % 1023,9 hPa 0,0 l/m 22,6 km/h (4 Bft) W 272 0 min 0,000 mm 0,0 UV-I 82 W/m 3,9 C -3,6 C 35,4 km/h (5 Bft) 98,00 %
12.12.2016 14:38 5,5 C 90 % 1023,9 hPa 0,0 l/m 19,2 km/h (3 Bft) W-SW 254 0 min 0,000 mm 0,0 UV-I 92 W/m 4,0 C -2,2 C 27,4 km/h (4 Bft) 100,00 %
12.12.2016 14:40 5,5 C 90 % 1023,9 hPa 0,0 l/m 17,0 km/h (3 Bft) W-SW 253 0 min 0,000 mm 0,0 UV-I 85 W/m 4,0 C -1,3 C 25,7 km/h (4 Bft) 100,00 %
12.12.2016 14:42 5,5 C 90 % 1023,9 hPa 0,0 l/m 19,6 km/h (3 Bft) W 268 0 min 0,000 mm 0,0 UV-I 78 W/m 4,0 C -2,4 C 33,8 km/h (5 Bft) 96,00 %
12.12.2016 14:44 5,5 C 90 % 1023,9 hPa 0,0 l/m 19,4 km/h (3 Bft) SW 218 0 min 0,000 mm 0,0 UV-I 70 W/m 4,0 C -2,3 C 27,4 km/h (4 Bft) 95,74 %
12.12.2016 14:46 5,5 C 90 % 1024,0 hPa 0,0 l/m 21,2 km/h (4 Bft) W 272 0 min 0,000 mm 0,0 UV-I 74 W/m 4,0 C -3,0 C 32,2 km/h (5 Bft) 97,44 %
12.12.2016 14:48 5,5 C 90 % 1024,0 hPa 0,0 l/m 19,7 km/h (3 Bft) SW 219 0 min 0,000 mm 0,0 UV-I 73 W/m 4,0 C -2,4 C 30,6 km/h (5 Bft) 96,43 %
12.12.2016 14:50 5,5 C 90 % 1024,0 hPa 0,0 l/m 20,2 km/h (4 Bft) W-SW 248 0 min 0,000 mm 0,0 UV-I 79 W/m 4,0 C -2,6 C 29,0 km/h (5 Bft) 97,56 %
12.12.2016 14:52 5,5 C 90 % 1024,1 hPa 0,0 l/m 16,8 km/h (3 Bft) W 267 2 min 0,000 mm 0,0 UV-I 88 W/m 4,0 C -1,2 C 25,7 km/h (4 Bft) 97,73 %
12.12.2016 14:54 5,5 C 90 % 1024,1 hPa 0,0 l/m 19,1 km/h (3 Bft) W-SW 238 2 min 0,000 mm 0,0 UV-I 109 W/m 4,0 C -2,2 C 30,6 km/h (5 Bft) 98,11 %
12.12.2016 14:56 5,6 C 90 % 1024,1 hPa 0,0 l/m 12,7 km/h (3 Bft) W 271 2 min 0,000 mm 0,0 UV-I 102 W/m 4,1 C 1,0 C 22,5 km/h (4 Bft) 94,74 %
12.12.2016 14:58 5,6 C 90 % 1024,0 hPa 0,0 l/m 15,7 km/h (3 Bft) W-SW 252 2 min 0,000 mm 0,0 UV-I 88 W/m 4,1 C -0,5 C 25,7 km/h (4 Bft) 95,74 %
12.12.2016 15:00 5,6 C 90 % 1024,1 hPa 0,0 l/m 17,4 km/h (3 Bft) W-SW 244 2 min 0,051 mm 0,0 UV-I 88 W/m 4,1 C -1,3 C 27,4 km/h (4 Bft) 96,00 %
12.12.2016 15:02 5,6 C 90 % 1024,1 hPa 0,0 l/m 16,4 km/h (3 Bft) W-SW 242 2 min 0,000 mm 0,0 UV-I 82 W/m 4,1 C -0,9 C 25,7 km/h (4 Bft) 97,73 %
12.12.2016 15:04 5,6 C 90 % 1024,1 hPa 0,0 l/m 17,4 km/h (3 Bft) W 259 0 min 0,000 mm 0,0 UV-I 67 W/m 4,1 C -1,3 C 29,0 km/h (5 Bft) 96,00 %
12.12.2016 15:06 5,6 C 90 % 1024,1 hPa 0,0 l/m 16,8 km/h (3 Bft) W-SW 240 0 min 0,000 mm 0,0 UV-I 49 W/m 4,1 C -1,1 C 27,4 km/h (4 Bft) 98,11 %
12.12.2016 15:08 5,5 C 90 % 1024,1 hPa 0,0 l/m 18,5 km/h (3 Bft) W 269 0 min 0,000 mm 0,0 UV-I 40 W/m 4,0 C -1,9 C 29,0 km/h (5 Bft) 97,37 %
12.12.2016 15:10 5,5 C 90 % 1024,2 hPa 0,0 l/m 14,4 km/h (3 Bft) W 273 0 min 0,000 mm 0,0 UV-I 37 W/m 4,0 C -0,0 C 20,9 km/h (4 Bft) 98,00 %
12.12.2016 15:12 5,4 C 90 % 1024,1 hPa 0,0 l/m 13,0 km/h (3 Bft) W-SW 244 0 min 0,000 mm 0,0 UV-I 35 W/m 3,9 C 0,6 C 19,3 km/h (3 Bft) 97,87 %
12.12.2016 15:14 5,4 C 90 % 1024,2 hPa 0,0 l/m 17,1 km/h (3 Bft) W-SW 253 0 min 0,000 mm 0,0 UV-I 43 W/m 3,9 C -1,4 C 24,1 km/h (4 Bft) 100,00 %
12.12.2016 15:16 5,4 C 90 % 1024,1 hPa 0,0 l/m 15,4 km/h (3 Bft) SW 236 0 min 0,000 mm 0,0 UV-I 48 W/m 3,9 C -0,6 C 22,5 km/h (4 Bft) 98,31 %
12.12.2016 15:18 5,4 C 90 % 1024,1 hPa 0,0 l/m 13,3 km/h (3 Bft) W-SW 243 0 min 0,000 mm 0,0 UV-I 56 W/m 3,9 C 0,5 C 20,9 km/h (4 Bft) 100,00 %
12.12.2016 15:20 5,4 C 90 % 1024,1 hPa 0,0 l/m 14,9 km/h (3 Bft) W-SW 254 2 min 0,000 mm 0,0 UV-I 63 W/m 3,9 C -0,4 C 25,7 km/h (4 Bft) 100,00 %
12.12.2016 15:22 5,4 C 90 % 1024,1 hPa 0,0 l/m 18,9 km/h (3 Bft) W-SW 252 2 min 0,000 mm 0,0 UV-I 62 W/m 3,9 C -2,2 C 24,1 km/h (4 Bft) 100,00 %
12.12.2016 15:24 5,3 C 90 % 1024,1 hPa 0,0 l/m 17,2 km/h (3 Bft) W-SW 239 2 min 0,000 mm 0,0 UV-I 65 W/m 3,8 C -1,6 C 29,0 km/h (5 Bft) 100,00 %
12.12.2016 15:26 5,3 C 90 % 1024,0 hPa 0,0 l/m 17,6 km/h (3 Bft) S-SW 208 2 min 0,000 mm 0,0 UV-I 62 W/m 3,8 C -1,8 C 25,7 km/h (4 Bft) 100,00 %
12.12.2016 15:28 5,3 C 90 % 1024,1 hPa 0,0 l/m 14,7 km/h (3 Bft) W-SW 240 2 min 0,000 mm 0,0 UV-I 56 W/m 3,8 C -0,4 C 22,5 km/h (4 Bft) 100,00 %
12.12.2016 15:30 5,3 C 90 % 1024,1 hPa 0,0 l/m 17,2 km/h (3 Bft) W-SW 250 2 min 0,000 mm 0,0 UV-I 52 W/m 3,8 C -1,6 C 25,7 km/h (4 Bft) 100,00 %
12.12.2016 15:32 5,3 C 90 % 1024,1 hPa 0,0 l/m 17,2 km/h (3 Bft) W 263 2 min 0,000 mm 0,0 UV-I 46 W/m 3,8 C -1,6 C 24,1 km/h (4 Bft) 100,00 %
12.12.2016 15:34 5,3 C 90 % 1024,2 hPa 0,0 l/m 13,3 km/h (3 Bft) W-NW 287 0 min 0,000 mm 0,0 UV-I 36 W/m 3,8 C 0,3 C 22,5 km/h (4 Bft) 100,00 %
12.12.2016 15:36 5,3 C 90 % 1024,2 hPa 0,0 l/m 14,8 km/h (3 Bft) W-SW 250 0 min 0,000 mm 0,0 UV-I 28 W/m 3,8 C -0,5 C 22,5 km/h (4 Bft) 100,00 %
12.12.2016 15:38 5,3 C 90 % 1024,2 hPa 0,0 l/m 16,7 km/h (3 Bft) W 264 0 min 0,000 mm 0,0 UV-I 22 W/m 3,8 C -1,4 C 27,4 km/h (4 Bft) 100,00 %
12.12.2016 15:40 5,3 C 90 % 1024,2 hPa 0,0 l/m 14,1 km/h (3 Bft) W 269 0 min 0,000 mm 0,0 UV-I 19 W/m 3,8 C -0,1 C 25,7 km/h (4 Bft) 97,87 %
12.12.2016 15:42 5,3 C 90 % 1024,2 hPa 0,0 l/m 14,6 km/h (3 Bft) W-SW 245 0 min 0,000 mm 0,0 UV-I 17 W/m 3,8 C -0,4 C 20,9 km/h (4 Bft) 100,00 %
12.12.2016 15:44 5,3 C 90 % 1024,2 hPa 0,0 l/m 15,3 km/h (3 Bft) SW 229 0 min 0,000 mm 0,0 UV-I 15 W/m 3,8 C -0,7 C 24,1 km/h (4 Bft) 100,00 %
12.12.2016 15:46 5,3 C 90 % 1024,2 hPa 0,0 l/m 16,9 km/h (3 Bft) W-SW 244 0 min 0,000 mm 0,0 UV-I 12 W/m 3,8 C -1,5 C 24,1 km/h (4 Bft) 100,00 %
12.12.2016 15:48 5,3 C 90 % 1024,2 hPa 0,0 l/m 19,9 km/h (4 Bft) SW 232 0 min 0,000 mm 0,0 UV-I 11 W/m 3,8 C -2,7 C 29,0 km/h (5 Bft) 100,00 %
12.12.2016 15:50 5,3 C 90 % 1024,2 hPa 0,0 l/m 14,2 km/h (3 Bft) S-SW 192 0 min 0,000 mm 0,0 UV-I 11 W/m 3,8 C -0,1 C 22,5 km/h (4 Bft) 100,00 %
12.12.2016 15:52 5,3 C 90 % 1024,2 hPa 0,0 l/m 15,1 km/h (3 Bft) W 268 0 min 0,000 mm 0,0 UV-I 12 W/m 3,8 C -0,6 C 22,5 km/h (4 Bft) 100,00 %
12.12.2016 15:54 5,3 C 90 % 1024,2 hPa 0,0 l/m 16,1 km/h (3 Bft) SW 221 0 min 0,000 mm 0,0 UV-I 12 W/m 3,8 C -1,1 C 22,5 km/h (4 Bft) 100,00 %
12.12.2016 15:56 5,2 C 90 % 1024,2 hPa 0,0 l/m 15,5 km/h (3 Bft) SW 232 0 min 0,000 mm 0,0 UV-I 10 W/m 3,7 C -0,9 C 24,1 km/h (4 Bft) 100,00 %
12.12.2016 15:58 5,2 C 90 % 1024,2 hPa 0,0 l/m 14,5 km/h (3 Bft) S-SW 198 0 min 0,000 mm 0,0 UV-I 9 W/m 3,7 C -0,4 C 20,9 km/h (4 Bft) 100,00 %
12.12.2016 16:00 5,2 C 90 % 1024,3 hPa 0,0 l/m 13,5 km/h (3 Bft) SW 224 0 min 0,000 mm 0,0 UV-I 8 W/m 3,7 C 0,1 C 22,5 km/h (4 Bft) 100,00 %
12.12.2016 16:02 5,2 C 91 % 1024,2 hPa 0,0 l/m 13,0 km/h (3 Bft) W-SW 248 0 min 0,026 mm 0,0 UV-I 7 W/m 3,9 C 0,4 C 20,9 km/h (4 Bft) 97,87 %
12.12.2016 16:04 5,1 C 90 % 1024,2 hPa 0,0 l/m 15,4 km/h (3 Bft) SW 228 0 min 0,000 mm 0,0 UV-I 7 W/m 3,6 C -1,0 C 24,1 km/h (4 Bft) 100,00 %
12.12.2016 16:06 5,1 C 90 % 1024,3 hPa 0,0 l/m 12,1 km/h (2 Bft) SW 232 0 min 0,000 mm 0,0 UV-I 6 W/m 3,6 C 0,8 C 25,7 km/h (4 Bft) 100,00 %
12.12.2016 16:08 5,1 C 91 % 1024,3 hPa 0,0 l/m 15,4 km/h (3 Bft) SW 221 0 min 0,000 mm 0,0 UV-I 5 W/m 3,8 C -1,0 C 22,5 km/h (4 Bft) 100,00 %
12.12.2016 16:10 5,1 C 91 % 1024,4 hPa 0,0 l/m 14,8 km/h (3 Bft) W-SW 240 0 min 0,000 mm 0,0 UV-I 5 W/m 3,8 C -0,7 C 20,9 km/h (4 Bft) 100,00 %
12.12.2016 16:12 5,1 C 91 % 1024,4 hPa 0,0 l/m 9,6 km/h (2 Bft) S-SW 210 0 min 0,000 mm 0,0 UV-I 5 W/m 3,8 C 2,5 C 16,1 km/h (3 Bft) 100,00 %
12.12.2016 16:14 5,1 C 91 % 1024,4 hPa 0,0 l/m 13,8 km/h (3 Bft) W-SW 248 0 min 0,000 mm 0,0 UV-I 5 W/m 3,8 C -0,2 C 20,9 km/h (4 Bft) 100,00 %
12.12.2016 16:16 5,0 C 91 % 1024,4 hPa 0,0 l/m 13,6 km/h (3 Bft) W 265 0 min 0,000 mm 0,0 UV-I 0 W/m 3,7 C -0,2 C 19,3 km/h (3 Bft) 100,00 %
12.12.2016 16:18 5,0 C 91 % 1024,4 hPa 0,0 l/m 16,9 km/h (3 Bft) W-SW 240 0 min 0,000 mm 0,0 UV-I 0 W/m 3,7 C -1,8 C 22,5 km/h (4 Bft) 100,00 %
12.12.2016 16:20 5,0 C 91 % 1024,5 hPa 0,0 l/m 12,9 km/h (3 Bft) W-SW 240 0 min 0,000 mm 0,0 UV-I 0 W/m 3,7 C 0,2 C 19,3 km/h (3 Bft) 100,00 %
12.12.2016 16:22 4,9 C 91 % 1024,5 hPa 0,0 l/m 14,0 km/h (3 Bft) W-SW 247 0 min 0,000 mm 0,0 UV-I 0 W/m 3,6 C -0,5 C 19,3 km/h (3 Bft) 100,00 %
12.12.2016 16:24 4,9 C 91 % 1024,6 hPa 0,0 l/m 9,9 km/h (2 Bft) SW 227 0 min 0,000 mm 0,0 UV-I 0 W/m 3,6 C 2,0 C 17,7 km/h (3 Bft) 100,00 %
12.12.2016 16:26 4,9 C 91 % 1024,6 hPa 0,0 l/m 13,3 km/h (3 Bft) W-SW 242 0 min 0,000 mm 0,0 UV-I 0 W/m 3,6 C -0,1 C 17,7 km/h (3 Bft) 100,00 %
12.12.2016 16:28 4,9 C 91 % 1024,6 hPa 0,0 l/m 12,2 km/h (2 Bft) SW 215 0 min 0,000 mm 0,0 UV-I 0 W/m 3,6 C 0,5 C 19,3 km/h (3 Bft) 100,00 %
12.12.2016 16:30 4,9 C 92 % 1024,7 hPa 0,0 l/m 16,7 km/h (3 Bft) W-SW 252 0 min 0,000 mm 0,0 UV-I 0 W/m 3,7 C -1,9 C 22,5 km/h (4 Bft) 98,00 %
12.12.2016 16:32 4,9 C 92 % 1024,7 hPa 0,0 l/m 11,1 km/h (2 Bft) SW 233 0 min 0,000 mm 0,0 UV-I 0 W/m 3,7 C 1,2 C 14,5 km/h (3 Bft) 100,00 %
12.12.2016 16:34 4,9 C 92 % 1024,7 hPa 0,0 l/m 9,8 km/h (2 Bft) SW 228 0 min 0,000 mm 0,0 UV-I 0 W/m 3,7 C 2,1 C 20,9 km/h (4 Bft) 98,11 %
12.12.2016 16:36 4,8 C 92 % 1024,8 hPa 0,0 l/m 10,8 km/h (2 Bft) W-SW 239 0 min 0,000 mm 0,0 UV-I 0 W/m 3,6 C 1,3 C 17,7 km/h (3 Bft) 97,56 %
12.12.2016 16:38 4,8 C 92 % 1024,8 hPa 0,0 l/m 12,5 km/h (3 Bft) W-SW 238 0 min 0,000 mm 0,0 UV-I 0 W/m 3,6 C 0,2 C 22,5 km/h (4 Bft) 100,00 %
12.12.2016 16:40 4,8 C 92 % 1024,8 hPa 0,0 l/m 7,1 km/h (2 Bft) W-SW 241 0 min 0,000 mm 0,0 UV-I 0 W/m 3,6 C 4,2 C 11,3 km/h (2 Bft) 100,00 %
12.12.2016 16:42 4,8 C 92 % 1024,8 hPa 0,0 l/m 10,5 km/h (2 Bft) W-SW 255 0 min 0,000 mm 0,0 UV-I 0 W/m 3,6 C 1,5 C 14,5 km/h (3 Bft) 97,62 %
12.12.2016 16:44 4,8 C 92 % 1024,9 hPa 0,0 l/m 13,8 km/h (3 Bft) W-SW 242 0 min 0,000 mm 0,0 UV-I 0 W/m 3,6 C -0,5 C 19,3 km/h (3 Bft) 94,34 %
12.12.2016 16:46 4,8 C 92 % 1024,9 hPa 0,0 l/m 12,1 km/h (2 Bft) W-SW 238 0 min 0,000 mm 0,0 UV-I 0 W/m 3,6 C 0,5 C 17,7 km/h (3 Bft) 100,00 %
12.12.2016 16:48 4,8 C 92 % 1024,9 hPa 0,0 l/m 10,7 km/h (2 Bft) S-SW 209 0 min 0,000 mm 0,0 UV-I 0 W/m 3,6 C 1,4 C 17,7 km/h (3 Bft) 96,43 %
12.12.2016 16:50 4,8 C 92 % 1024,9 hPa 0,0 l/m 11,6 km/h (2 Bft) SW 227 0 min 0,000 mm 0,0 UV-I 0 W/m 3,6 C 0,8 C 17,7 km/h (3 Bft) 97,37 %
12.12.2016 16:52 4,8 C 92 % 1024,9 hPa 0,0 l/m 12,5 km/h (3 Bft) W-SW 255 0 min 0,000 mm 0,0 UV-I 0 W/m 3,6 C 0,2 C 17,7 km/h (3 Bft) 98,00 %
12.12.2016 16:54 4,8 C 92 % 1025,0 hPa 0,0 l/m 12,7 km/h (3 Bft) SW 225 0 min 0,000 mm 0,0 UV-I 0 W/m 3,6 C 0,1 C 16,1 km/h (3 Bft) 98,00 %
12.12.2016 16:56 4,8 C 92 % 1025,0 hPa 0,0 l/m 7,5 km/h (2 Bft) SW 228 0 min 0,000 mm 0,0 UV-I 0 W/m 3,6 C 3,8 C 12,9 km/h (3 Bft) 98,00 %
12.12.2016 16:58 4,8 C 92 % 1025,0 hPa 0,0 l/m 10,4 km/h (2 Bft) S-SW 213 0 min 0,000 mm 0,0 UV-I 0 W/m 3,6 C 1,6 C 19,3 km/h (3 Bft) 97,56 %
12.12.2016 17:00 4,8 C 92 % 1025,0 hPa 0,0 l/m 9,6 km/h (2 Bft) W-SW 258 0 min 0,000 mm 0,0 UV-I 0 W/m 3,6 C 2,1 C 14,5 km/h (3 Bft) 97,73 %
12.12.2016 17:02 4,8 C 92 % 1025,0 hPa 0,0 l/m 11,1 km/h (2 Bft) W-SW 241 0 min 0,000 mm 0,0 UV-I 0 W/m 3,6 C 1,1 C 16,1 km/h (3 Bft) 96,43 %
12.12.2016 17:04 4,8 C 92 % 1025,0 hPa 0,0 l/m 12,4 km/h (3 Bft) S-SW 208 0 min 0,000 mm 0,0 UV-I 0 W/m 3,6 C 0,3 C 16,1 km/h (3 Bft) 97,73 %
12.12.2016 17:06 4,8 C 92 % 1025,0 hPa 0,0 l/m 11,7 km/h (2 Bft) SW 222 0 min 0,000 mm 0,0 UV-I 0 W/m 3,6 C 0,7 C 17,7 km/h (3 Bft) 97,73 %
12.12.2016 17:08 4,8 C 92 % 1025,0 hPa 0,0 l/m 12,2 km/h (2 Bft) SW 236 0 min 0,000 mm 0,0 UV-I 0 W/m 3,6 C 0,4 C 19,3 km/h (3 Bft) 97,87 %
12.12.2016 17:10 4,8 C 92 % 1025,1 hPa 0,0 l/m 12,9 km/h (3 Bft) W-SW 248 0 min 0,000 mm 0,0 UV-I 0 W/m 3,6 C -0,0 C 19,3 km/h (3 Bft) 97,87 %
12.12.2016 17:12 4,8 C 92 % 1025,1 hPa 0,0 l/m 12,6 km/h (3 Bft) S-SW 211 0 min 0,000 mm 0,0 UV-I 0 W/m 3,6 C 0,2 C 17,7 km/h (3 Bft) 97,56 %
12.12.2016 17:14 4,8 C 92 % 1025,0 hPa 0,0 l/m 9,7 km/h (2 Bft) SW 224 0 min 0,000 mm 0,0 UV-I 0 W/m 3,6 C 2,1 C 14,5 km/h (3 Bft) 98,11 %
12.12.2016 17:16 4,7 C 92 % 1025,1 hPa 0,0 l/m 11,7 km/h (2 Bft) W-SW 238 0 min 0,000 mm 0,0 UV-I 0 W/m 3,5 C 0,6 C 16,1 km/h (3 Bft) 97,56 %
12.12.2016 17:18 4,7 C 92 % 1025,1 hPa 0,0 l/m 14,1 km/h (3 Bft) SW 214 0 min 0,000 mm 0,0 UV-I 0 W/m 3,5 C -0,8 C 20,9 km/h (4 Bft) 98,31 %
12.12.2016 17:20 4,7 C 92 % 1025,1 hPa 0,0 l/m 12,6 km/h (3 Bft) S-SW 211 0 min 0,000 mm 0,0 UV-I 0 W/m 3,5 C 0,0 C 17,7 km/h (3 Bft) 100,00 %
12.12.2016 17:22 4,7 C 92 % 1025,0 hPa 0,0 l/m 14,8 km/h (3 Bft) SW 232 0 min 0,000 mm 0,0 UV-I 0 W/m 3,5 C -1,2 C 24,1 km/h (4 Bft) 97,87 %
12.12.2016 17:24 4,7 C 92 % 1025,1 hPa 0,0 l/m 14,5 km/h (3 Bft) SW 229 0 min 0,000 mm 0,0 UV-I 0 W/m 3,5 C -1,0 C 19,3 km/h (3 Bft) 100,00 %
12.12.2016 17:26 4,7 C 92 % 1025,1 hPa 0,0 l/m 12,5 km/h (3 Bft) W-SW 237 0 min 0,000 mm 0,0 UV-I 0 W/m 3,5 C 0,1 C 19,3 km/h (3 Bft) 100,00 %
12.12.2016 17:28 4,7 C 92 % 1025,0 hPa 0,0 l/m 15,2 km/h (3 Bft) W-SW 244 0 min 0,000 mm 0,0 UV-I 0 W/m 3,5 C -1,4 C 20,9 km/h (4 Bft) 100,00 %
12.12.2016 17:30 4,7 C 92 % 1025,0 hPa 0,0 l/m 13,4 km/h (3 Bft) SW 229 0 min 0,000 mm 0,0 UV-I 0 W/m 3,5 C -0,4 C 19,3 km/h (3 Bft) 100,00 %
12.12.2016 17:32 4,7 C 92 % 1025,1 hPa 0,0 l/m 11,8 km/h (2 Bft) SW 218 0 min 0,000 mm 0,0 UV-I 0 W/m 3,5 C 0,5 C 19,3 km/h (3 Bft) 100,00 %
12.12.2016 17:34 4,7 C 92 % 1025,1 hPa 0,0 l/m 14,5 km/h (3 Bft) SW 232 0 min 0,000 mm 0,0 UV-I 0 W/m 3,5 C -1,0 C 19,3 km/h (3 Bft) 100,00 %
12.12.2016 17:36 4,7 C 92 % 1025,1 hPa 0,0 l/m 15,0 km/h (3 Bft) SW 216 0 min 0,000 mm 0,0 UV-I 0 W/m 3,5 C -1,3 C 20,9 km/h (4 Bft) 100,00 %
12.12.2016 17:38 4,7 C 92 % 1025,1 hPa 0,0 l/m 13,8 km/h (3 Bft) W-SW 242 0 min 0,000 mm 0,0 UV-I 0 W/m 3,5 C -0,6 C 20,9 km/h (4 Bft) 100,00 %
12.12.2016 17:40 4,7 C 92 % 1025,1 hPa 0,0 l/m 13,0 km/h (3 Bft) W-SW 244 0 min 0,000 mm 0,0 UV-I 0 W/m 3,5 C -0,2 C 20,9 km/h (4 Bft) 100,00 %
12.12.2016 17:43 4,7 C 92 % 1025,1 hPa 0,0 l/m 13,5 km/h (3 Bft) W-SW 250 0 min 0,000 mm 0,0 UV-I 0 W/m 3,5 C -0,5 C 20,9 km/h (4 Bft) 98,46 %
12.12.2016 17:44 4,7 C 92 % 1025,1 hPa 0,0 l/m 15,6 km/h (3 Bft) W-SW 250 0 min 0,000 mm 0,0 UV-I 0 W/m 3,5 C -1,6 C 19,3 km/h (3 Bft) 100,00 %
12.12.2016 17:46 4,7 C 92 % 1025,2 hPa 0,0 l/m 15,3 km/h (3 Bft) SW 225 0 min 0,000 mm 0,0 UV-I 0 W/m 3,5 C -1,4 C 25,7 km/h (4 Bft) 100,00 %
12.12.2016 17:48 4,7 C 92 % 1025,2 hPa 0,0 l/m 11,7 km/h (2 Bft) W-SW 248 0 min 0,000 mm 0,0 UV-I 0 W/m 3,5 C 0,6 C 17,7 km/h (3 Bft) 100,00 %
12.12.2016 17:50 4,7 C 92 % 1025,2 hPa 0,0 l/m 10,8 km/h (2 Bft) SW 235 0 min 0,000 mm 0,0 UV-I 0 W/m 3,5 C 1,2 C 17,7 km/h (3 Bft) 93,62 %
12.12.2016 17:52 4,7 C 92 % 1025,3 hPa 0,0 l/m 10,8 km/h (2 Bft) SW 223 0 min 0,000 mm 0,0 UV-I 0 W/m 3,5 C 1,2 C 14,5 km/h (3 Bft) 100,00 %
12.12.2016 17:54 4,7 C 92 % 1025,3 hPa 0,0 l/m 10,0 km/h (2 Bft) SW 227 0 min 0,000 mm 0,0 UV-I 0 W/m 3,5 C 1,7 C 14,5 km/h (3 Bft) 100,00 %
12.12.2016 17:56 4,7 C 92 % 1025,3 hPa 0,0 l/m 14,1 km/h (3 Bft) SW 226 0 min 0,000 mm 0,0 UV-I 0 W/m 3,5 C -0,8 C 20,9 km/h (4 Bft) 97,56 %
12.12.2016 17:58 4,7 C 92 % 1025,3 hPa 0,0 l/m 10,6 km/h (2 Bft) SW 233 0 min 0,000 mm 0,0 UV-I 0 W/m 3,5 C 1,3 C 19,3 km/h (3 Bft) 100,00 %
12.12.2016 18:00 4,7 C 92 % 1025,3 hPa 0,0 l/m 10,7 km/h (2 Bft) W-SW 241 0 min 0,000 mm 0,0 UV-I 0 W/m 3,5 C 1,3 C 17,7 km/h (3 Bft) 100,00 %
12.12.2016 18:02 4,7 C 92 % 1025,4 hPa 0,0 l/m 11,5 km/h (2 Bft) SW 230 0 min 0,000 mm 0,0 UV-I 0 W/m 3,5 C 0,7 C 17,7 km/h (3 Bft) 98,08 %
12.12.2016 18:04 4,7 C 92 % 1025,4 hPa 0,0 l/m 14,4 km/h (3 Bft) SW 229 0 min 0,000 mm 0,0 UV-I 0 W/m 3,5 C -1,0 C 22,5 km/h (4 Bft) 97,62 %
12.12.2016 18:06 4,7 C 92 % 1025,4 hPa 0,0 l/m 11,5 km/h (2 Bft) W-SW 255 0 min 0,000 mm 0,0 UV-I 0 W/m 3,5 C 0,7 C 19,3 km/h (3 Bft) 100,00 %
12.12.2016 18:08 4,7 C 92 % 1025,5 hPa 0,0 l/m 10,6 km/h (2 Bft) SW 229 0 min 0,000 mm 0,0 UV-I 0 W/m 3,5 C 1,3 C 16,1 km/h (3 Bft) 98,11 %
12.12.2016 18:10 4,7 C 92 % 1025,5 hPa 0,0 l/m 11,3 km/h (2 Bft) SW 225 0 min 0,000 mm 0,0 UV-I 0 W/m 3,5 C 0,9 C 14,5 km/h (3 Bft) 96,00 %
12.12.2016 18:12 4,7 C 92 % 1025,5 hPa 0,0 l/m 11,6 km/h (2 Bft) SW 223 0 min 0,000 mm 0,0 UV-I 0 W/m 3,5 C 0,7 C 16,1 km/h (3 Bft) 100,00 %
12.12.2016 18:14 4,7 C 92 % 1025,5 hPa 0,0 l/m 9,6 km/h (2 Bft) SW 223 0 min 0,000 mm 0,0 UV-I 0 W/m 3,5 C 2,0 C 14,5 km/h (3 Bft) 100,00 %
12.12.2016 18:16 4,7 C 92 % 1025,6 hPa 0,0 l/m 13,8 km/h (3 Bft) SW 229 0 min 0,000 mm 0,0 UV-I 0 W/m 3,5 C -0,6 C 19,3 km/h (3 Bft) 100,00 %
12.12.2016 18:18 4,7 C 92 % 1025,6 hPa 0,0 l/m 12,0 km/h (2 Bft) SW 235 0 min 0,000 mm 0,0 UV-I 0 W/m 3,5 C 0,4 C 16,1 km/h (3 Bft) 100,00 %
12.12.2016 18:20 4,7 C 92 % 1025,6 hPa 0,0 l/m 10,8 km/h (2 Bft) W-SW 240 0 min 0,000 mm 0,0 UV-I 0 W/m 3,5 C 1,2 C 16,1 km/h (3 Bft) 100,00 %
12.12.2016 18:22 4,7 C 92 % 1025,7 hPa 0,0 l/m 10,6 km/h (2 Bft) SW 234 0 min 0,000 mm 0,0 UV-I 0 W/m 3,5 C 1,3 C 14,5 km/h (3 Bft) 100,00 %
12.12.2016 18:24 4,7 C 92 % 1025,6 hPa 0,0 l/m 9,7 km/h (2 Bft) W-SW 238 0 min 0,000 mm 0,0 UV-I 0 W/m 3,5 C 2,0 C 14,5 km/h (3 Bft) 100,00 %
12.12.2016 18:26 4,7 C 92 % 1025,7 hPa 0,0 l/m 13,7 km/h (3 Bft) SW 224 0 min 0,000 mm 0,0 UV-I 0 W/m 3,5 C -0,6 C 17,7 km/h (3 Bft) 100,00 %
12.12.2016 18:28 4,7 C 92 % 1025,7 hPa 0,0 l/m 11,9 km/h (2 Bft) SW 236 0 min 0,000 mm 0,0 UV-I 0 W/m 3,5 C 0,5 C 17,7 km/h (3 Bft) 100,00 %
12.12.2016 18:30 4,7 C 92 % 1025,6 hPa 0,0 l/m 12,7 km/h (3 Bft) W-SW 258 0 min 0,000 mm 0,0 UV-I 0 W/m 3,5 C -0,0 C 19,3 km/h (3 Bft) 100,00 %
12.12.2016 18:32 4,7 C 92 % 1025,7 hPa 0,0 l/m 15,0 km/h (3 Bft) S-SW 213 0 min 0,000 mm 0,0 UV-I 0 W/m 3,5 C -1,3 C 20,9 km/h (4 Bft) 100,00 %
12.12.2016 18:34 4,7 C 92 % 1025,7 hPa 0,0 l/m 12,1 km/h (2 Bft) W 259 0 min 0,000 mm 0,0 UV-I 0 W/m 3,5 C 0,3 C 16,1 km/h (3 Bft) 95,45 %
12.12.2016 18:36 4,7 C 92 % 1025,7 hPa 0,0 l/m 11,9 km/h (2 Bft) SW 229 0 min 0,000 mm 0,0 UV-I 0 W/m 3,5 C 0,5 C 17,7 km/h (3 Bft) 100,00 %
12.12.2016 18:38 4,7 C 92 % 1025,7 hPa 0,0 l/m 13,9 km/h (3 Bft) S-SW 212 0 min 0,000 mm 0,0 UV-I 0 W/m 3,5 C -0,7 C 20,9 km/h (4 Bft) 100,00 %
12.12.2016 18:40 4,7 C 92 % 1025,7 hPa 0,0 l/m 10,4 km/h (2 Bft) S-SW 205 0 min 0,000 mm 0,0 UV-I 0 W/m 3,5 C 1,5 C 16,1 km/h (3 Bft) 100,00 %
12.12.2016 18:42 4,7 C 92 % 1025,8 hPa 0,0 l/m 11,7 km/h (2 Bft) SW 236 0 min 0,000 mm 0,0 UV-I 0 W/m 3,5 C 0,6 C 20,9 km/h (4 Bft) 100,00 %
12.12.2016 18:44 4,7 C 92 % 1025,8 hPa 0,0 l/m 10,0 km/h (2 Bft) W-SW 252 0 min 0,000 mm 0,0 UV-I 0 W/m 3,5 C 1,7 C 12,9 km/h (3 Bft) 98,11 %
12.12.2016 18:46 4,7 C 92 % 1025,8 hPa 0,0 l/m 8,4 km/h (2 Bft) SW 219 0 min 0,000 mm 0,0 UV-I 0 W/m 3,5 C 3,0 C 14,5 km/h (3 Bft) 100,00 %
12.12.2016 18:48 4,7 C 92 % 1025,8 hPa 0,0 l/m 11,6 km/h (2 Bft) SW 219 0 min 0,000 mm 0,0 UV-I 0 W/m 3,5 C 0,7 C 19,3 km/h (3 Bft) 97,56 %
12.12.2016 18:50 4,7 C 92 % 1025,9 hPa 0,0 l/m 11,6 km/h (2 Bft) SW 230 0 min 0,000 mm 0,0 UV-I 0 W/m 3,5 C 0,7 C 19,3 km/h (3 Bft) 96,43 %
12.12.2016 18:52 4,7 C 92 % 1025,9 hPa 0,0 l/m 11,4 km/h (2 Bft) W-SW 246 0 min 0,000 mm 0,0 UV-I 0 W/m 3,5 C 0,8 C 19,3 km/h (3 Bft) 98,00 %
12.12.2016 18:54 4,7 C 92 % 1026,0 hPa 0,0 l/m 11,4 km/h (2 Bft) W-SW 239 0 min 0,000 mm 0,0 UV-I 0 W/m 3,5 C 0,8 C 19,3 km/h (3 Bft) 97,87 %
12.12.2016 18:56 4,7 C 92 % 1026,0 hPa 0,0 l/m 11,6 km/h (2 Bft) SW 217 0 min 0,000 mm 0,0 UV-I 0 W/m 3,5 C 0,7 C 19,3 km/h (3 Bft) 94,00 %
12.12.2016 18:58 4,7 C 92 % 1026,0 hPa 0,0 l/m 12,0 km/h (2 Bft) SW 219 0 min 0,000 mm 0,0 UV-I 0 W/m 3,5 C 0,4 C 17,7 km/h (3 Bft) 97,14 %
12.12.2016 19:00 4,7 C 92 % 1026,0 hPa 0,0 l/m 10,5 km/h (2 Bft) SW 232 0 min 0,000 mm 0,0 UV-I 0 W/m 3,5 C 1,4 C 17,7 km/h (3 Bft) 98,21 %
12.12.2016 19:02 4,7 C 92 % 1026,1 hPa 0,0 l/m 12,4 km/h (3 Bft) S 190 0 min 0,000 mm 0,0 UV-I 0 W/m 3,5 C 0,2 C 19,3 km/h (3 Bft) 97,73 %
12.12.2016 19:04 4,7 C 92 % 1026,0 hPa 0,0 l/m 11,4 km/h (2 Bft) W-SW 258 0 min 0,000 mm 0,0 UV-I 0 W/m 3,5 C 0,8 C 17,7 km/h (3 Bft) 94,00 %
12.12.2016 19:06 4,7 C 92 % 1026,1 hPa 0,0 l/m 12,6 km/h (3 Bft) SW 219 0 min 0,000 mm 0,0 UV-I 0 W/m 3,5 C 0,0 C 22,5 km/h (4 Bft) 95,74 %
12.12.2016 19:08 4,7 C 92 % 1026,0 hPa 0,0 l/m 14,8 km/h (3 Bft) S-SW 210 0 min 0,000 mm 0,0 UV-I 0 W/m 3,5 C -1,2 C 25,7 km/h (4 Bft) 97,87 %
12.12.2016 19:10 4,7 C 92 % 1026,0 hPa 0,0 l/m 13,1 km/h (3 Bft) W-SW 238 0 min 0,000 mm 0,0 UV-I 0 W/m 3,5 C -0,2 C 20,9 km/h (4 Bft) 97,37 %
12.12.2016 19:15 4,7 C 92 % 1026,1 hPa 0,0 l/m 16,1 km/h (3 Bft) SW 225 0 min 0,000 mm 0,0 UV-I 0 W/m 3,5 C -1,8 C 25,7 km/h (4 Bft) 98,25 %
12.12.2016 19:20 4,7 C 92 % 1026,1 hPa 0,0 l/m 14,5 km/h (3 Bft) W-SW 247 0 min 0,000 mm 0,0 UV-I 0 W/m 3,5 C -1,0 C 20,9 km/h (4 Bft) 100,00 %
12.12.2016 19:24 4,7 C 92 % 1026,1 hPa 0,0 l/m 12,7 km/h (3 Bft) W-SW 243 0 min 0,000 mm 0,0 UV-I 0 W/m 3,5 C -0,0 C 14,5 km/h (3 Bft) 97,85 %
12.12.2016 19:26 4,7 C 92 % 1026,1 hPa 0,0 l/m 13,1 km/h (3 Bft) SW 227 0 min 0,000 mm 0,0 UV-I 0 W/m 3,5 C -0,2 C 22,5 km/h (4 Bft) 98,28 %
12.12.2016 19:28 4,7 C 92 % 1026,1 hPa 0,0 l/m 13,1 km/h (3 Bft) SW 219 0 min 0,000 mm 0,0 UV-I 0 W/m 3,5 C -0,2 C 17,7 km/h (3 Bft) 97,44 %
12.12.2016 19:30 4,7 C 92 % 1026,1 hPa 0,0 l/m 14,6 km/h (3 Bft) SW 227 0 min 0,000 mm 0,0 UV-I 0 W/m 3,5 C -1,1 C 22,5 km/h (4 Bft) 100,00 %
12.12.2016 19:32 4,7 C 92 % 1026,1 hPa 0,0 l/m 12,9 km/h (3 Bft) SW 232 0 min 0,000 mm 0,0 UV-I 0 W/m 3,5 C -0,1 C 16,1 km/h (3 Bft) 100,00 %
12.12.2016 19:34 4,7 C 92 % 1026,1 hPa 0,0 l/m 15,4 km/h (3 Bft) W-SW 243 0 min 0,000 mm 0,0 UV-I 0 W/m 3,5 C -1,5 C 20,9 km/h (4 Bft) 100,00 %
12.12.2016 19:36 4,7 C 92 % 1026,1 hPa 0,0 l/m 15,0 km/h (3 Bft) W-SW 238 0 min 0,000 mm 0,0 UV-I 0 W/m 3,5 C -1,3 C 22,5 km/h (4 Bft) 100,00 %
12.12.2016 19:38 4,7 C 92 % 1026,1 hPa 0,0 l/m 17,0 km/h (3 Bft) W-SW 239 0 min 0,000 mm 0,0 UV-I 0 W/m 3,5 C -2,3 C 22,5 km/h (4 Bft) 100,00 %
12.12.2016 19:40 4,7 C 92 % 1026,2 hPa 0,0 l/m 16,8 km/h (3 Bft) SW 223 0 min 0,000 mm 0,0 UV-I 0 W/m 3,5 C -2,2 C 22,5 km/h (4 Bft) 96,23 %
12.12.2016 19:42 4,7 C 92 % 1026,1 hPa 0,0 l/m 13,7 km/h (3 Bft) W-SW 244 0 min 0,000 mm 0,0 UV-I 0 W/m 3,5 C -0,6 C 19,3 km/h (3 Bft) 100,00 %
12.12.2016 19:44 4,7 C 92 % 1026,2 hPa 0,0 l/m 15,2 km/h (3 Bft) SW 229 0 min 0,000 mm 0,0 UV-I 0 W/m 3,5 C -1,4 C 19,3 km/h (3 Bft) 100,00 %
12.12.2016 19:46 4,7 C 92 % 1026,2 hPa 0,0 l/m 15,3 km/h (3 Bft) W-SW 248 0 min 0,000 mm 0,0 UV-I 0 W/m 3,5 C -1,4 C 24,1 km/h (4 Bft) 100,00 %
12.12.2016 19:48 4,7 C 92 % 1026,3 hPa 0,0 l/m 13,6 km/h (3 Bft) SW 234 0 min 0,000 mm 0,0 UV-I 0 W/m 3,5 C -0,5 C 19,3 km/h (3 Bft) 97,56 %
12.12.2016 19:50 4,7 C 92 % 1026,3 hPa 0,0 l/m 14,7 km/h (3 Bft) W-SW 246 0 min 0,000 mm 0,0 UV-I 0 W/m 3,5 C -1,1 C 19,3 km/h (3 Bft) 100,00 %
12.12.2016 19:52 4,7 C 92 % 1026,3 hPa 0,0 l/m 13,0 km/h (3 Bft) W-SW 245 0 min 0,000 mm 0,0 UV-I 0 W/m 3,5 C -0,2 C 19,3 km/h (3 Bft) 100,00 %
12.12.2016 19:54 4,7 C 92 % 1026,3 hPa 0,0 l/m 15,9 km/h (3 Bft) W-SW 238 0 min 0,000 mm 0,0 UV-I 0 W/m 3,5 C -1,7 C 20,9 km/h (4 Bft) 100,00 %
12.12.2016 19:56 4,7 C 92 % 1026,3 hPa 0,0 l/m 14,8 km/h (3 Bft) SW 234 0 min 0,000 mm 0,0 UV-I 0 W/m 3,5 C -1,2 C 22,5 km/h (4 Bft) 100,00 %
12.12.2016 19:58 4,7 C 92 % 1026,3 hPa 0,0 l/m 14,6 km/h (3 Bft) SW 232 0 min 0,000 mm 0,0 UV-I 0 W/m 3,5 C -1,1 C 20,9 km/h (4 Bft) 98,00 %
12.12.2016 20:00 4,7 C 92 % 1026,3 hPa 0,0 l/m 12,8 km/h (3 Bft) SW 234 0 min 0,000 mm 0,0 UV-I 0 W/m 3,5 C -0,1 C 19,3 km/h (3 Bft) 100,00 %
12.12.2016 20:02 4,7 C 92 % 1026,3 hPa 0,0 l/m 15,7 km/h (3 Bft) W-SW 246 0 min 0,000 mm 0,0 UV-I 0 W/m 3,5 C -1,6 C 22,5 km/h (4 Bft) 100,00 %
12.12.2016 20:04 4,7 C 92 % 1026,3 hPa 0,0 l/m 12,5 km/h (3 Bft) W-SW 242 0 min 0,000 mm 0,0 UV-I 0 W/m 3,5 C 0,1 C 20,9 km/h (4 Bft) 100,00 %
12.12.2016 20:06 4,7 C 92 % 1026,2 hPa 0,0 l/m 12,8 km/h (3 Bft) SW 232 0 min 0,000 mm 0,0 UV-I 0 W/m 3,5 C -0,1 C 19,3 km/h (3 Bft) 100,00 %
12.12.2016 20:08 4,7 C 92 % 1026,3 hPa 0,0 l/m 13,2 km/h (3 Bft) W-SW 243 0 min 0,000 mm 0,0 UV-I 0 W/m 3,5 C -0,3 C 20,9 km/h (4 Bft) 97,56 %
12.12.2016 20:10 4,7 C 92 % 1026,2 hPa 0,0 l/m 15,4 km/h (3 Bft) SW 229 0 min 0,000 mm 0,0 UV-I 0 W/m 3,5 C -1,5 C 22,5 km/h (4 Bft) 98,11 %
12.12.2016 20:12 4,7 C 92 % 1026,3 hPa 0,0 l/m 13,0 km/h (3 Bft) SW 225 0 min 0,000 mm 0,0 UV-I 0 W/m 3,5 C -0,2 C 20,9 km/h (4 Bft) 97,73 %
12.12.2016 20:14 4,7 C 92 % 1026,3 hPa 0,0 l/m 15,6 km/h (3 Bft) S-SW 210 0 min 0,000 mm 0,0 UV-I 0 W/m 3,5 C -1,6 C 25,7 km/h (4 Bft) 98,00 %
12.12.2016 20:16 4,6 C 92 % 1026,3 hPa 0,0 l/m 16,5 km/h (3 Bft) S-SW 206 0 min 0,000 mm 0,0 UV-I 0 W/m 3,4 C -2,2 C 24,1 km/h (4 Bft) 100,00 %
12.12.2016 20:18 4,6 C 92 % 1026,4 hPa 0,0 l/m 13,7 km/h (3 Bft) W-SW 248 0 min 0,000 mm 0,0 UV-I 0 W/m 3,4 C -0,7 C 19,3 km/h (3 Bft) 100,00 %
12.12.2016 20:20 4,6 C 92 % 1026,4 hPa 0,0 l/m 11,5 km/h (2 Bft) W-SW 246 0 min 0,000 mm 0,0 UV-I 0 W/m 3,4 C 0,6 C 19,3 km/h (3 Bft) 98,21 %
12.12.2016 20:22 4,6 C 92 % 1026,4 hPa 0,0 l/m 12,3 km/h (3 Bft) W-SW 253 0 min 0,000 mm 0,0 UV-I 0 W/m 3,4 C 0,1 C 17,7 km/h (3 Bft) 100,00 %
12.12.2016 20:24 4,6 C 92 % 1026,4 hPa 0,0 l/m 9,8 km/h (2 Bft) SW 229 0 min 0,000 mm 0,0 UV-I 0 W/m 3,4 C 1,8 C 16,1 km/h (3 Bft) 96,61 %
12.12.2016 20:26 4,6 C 92 % 1026,4 hPa 0,0 l/m 9,9 km/h (2 Bft) W-SW 252 0 min 0,000 mm 0,0 UV-I 0 W/m 3,4 C 1,7 C 14,5 km/h (3 Bft) 95,12 %
12.12.2016 20:28 4,6 C 92 % 1026,4 hPa 0,0 l/m 7,5 km/h (2 Bft) W-SW 242 0 min 0,000 mm 0,0 UV-I 0 W/m 3,4 C 3,6 C 14,5 km/h (3 Bft) 100,00 %
12.12.2016 20:30 4,7 C 92 % 1026,4 hPa 0,0 l/m 9,7 km/h (2 Bft) W-SW 252 0 min 0,000 mm 0,0 UV-I 0 W/m 3,5 C 2,0 C 12,9 km/h (3 Bft) 98,00 %
12.12.2016 20:32 4,6 C 92 % 1026,4 hPa 0,0 l/m 10,6 km/h (2 Bft) SW 230 0 min 0,000 mm 0,0 UV-I 0 W/m 3,4 C 1,2 C 16,1 km/h (3 Bft) 100,00 %
12.12.2016 20:34 4,6 C 92 % 1026,4 hPa 0,0 l/m 8,2 km/h (2 Bft) SW 235 0 min 0,000 mm 0,0 UV-I 0 W/m 3,4 C 3,0 C 11,3 km/h (2 Bft) 97,37 %
12.12.2016 20:36 4,7 C 92 % 1026,4 hPa 0,0 l/m 11,8 km/h (2 Bft) SW 232 0 min 0,000 mm 0,0 UV-I 0 W/m 3,5 C 0,5 C 19,3 km/h (3 Bft) 100,00 %
12.12.2016 20:38 4,6 C 92 % 1026,4 hPa 0,0 l/m 11,7 km/h (2 Bft) SW 217 0 min 0,000 mm 0,0 UV-I 0 W/m 3,4 C 0,5 C 14,5 km/h (3 Bft) 97,87 %
12.12.2016 20:40 4,6 C 92 % 1026,4 hPa 0,0 l/m 11,3 km/h (2 Bft) W-SW 248 0 min 0,000 mm 0,0 UV-I 0 W/m 3,4 C 0,7 C 22,5 km/h (4 Bft) 100,00 %
12.12.2016 20:43 4,6 C 92 % 1026,4 hPa 0,0 l/m 10,1 km/h (2 Bft) SW 228 0 min 0,000 mm 0,0 UV-I 0 W/m 3,4 C 1,6 C 17,7 km/h (3 Bft) 100,00 %
12.12.2016 20:44 4,6 C 92 % 1026,4 hPa 0,0 l/m 13,6 km/h (3 Bft) W-SW 256 0 min 0,000 mm 0,0 UV-I 0 W/m 3,4 C -0,7 C 17,7 km/h (3 Bft) 100,00 %
12.12.2016 20:46 4,6 C 92 % 1026,3 hPa 0,0 l/m 10,8 km/h (2 Bft) W-SW 254 0 min 0,000 mm 0,0 UV-I 0 W/m 3,4 C 1,1 C 16,1 km/h (3 Bft) 97,87 %
12.12.2016 20:48 4,6 C 92 % 1026,4 hPa 0,0 l/m 10,9 km/h (2 Bft) W-SW 238 0 min 0,000 mm 0,0 UV-I 0 W/m 3,4 C 1,0 C 19,3 km/h (3 Bft) 100,00 %
12.12.2016 20:50 4,6 C 92 % 1026,4 hPa 0,0 l/m 8,0 km/h (2 Bft) SW 220 0 min 0,000 mm 0,0 UV-I 0 W/m 3,4 C 3,2 C 14,5 km/h (3 Bft) 97,37 %
12.12.2016 20:52 4,6 C 92 % 1026,4 hPa 0,0 l/m 8,9 km/h (2 Bft) SW 234 0 min 0,000 mm 0,0 UV-I 0 W/m 3,4 C 2,5 C 14,5 km/h (3 Bft) 98,11 %
12.12.2016 20:54 4,6 C 92 % 1026,5 hPa 0,0 l/m 10,0 km/h (2 Bft) W-SW 242 0 min 0,000 mm 0,0 UV-I 0 W/m 3,4 C 1,6 C 14,5 km/h (3 Bft) 98,21 %
12.12.2016 20:56 4,6 C 92 % 1026,4 hPa 0,0 l/m 10,7 km/h (2 Bft) SW 214 0 min 0,000 mm 0,0 UV-I 0 W/m 3,4 C 1,1 C 14,5 km/h (3 Bft) 97,56 %
12.12.2016 20:58 4,6 C 92 % 1026,5 hPa 0,0 l/m 12,2 km/h (2 Bft) W-SW 238 0 min 0,000 mm 0,0 UV-I 0 W/m 3,4 C 0,2 C 17,7 km/h (3 Bft) 97,87 %
12.12.2016 21:00 4,6 C 92 % 1026,5 hPa 0,0 l/m 10,9 km/h (2 Bft) W-SW 254 0 min 0,000 mm 0,0 UV-I 0 W/m 3,4 C 1,0 C 14,5 km/h (3 Bft) 98,11 %
12.12.2016 21:02 4,6 C 91 % 1026,5 hPa 0,0 l/m 9,7 km/h (2 Bft) W-SW 238 0 min 0,000 mm 0,0 UV-I 0 W/m 3,3 C 1,8 C 16,1 km/h (3 Bft) 97,56 %
12.12.2016 21:04 4,6 C 91 % 1026,5 hPa 0,0 l/m 8,2 km/h (2 Bft) SW 215 0 min 0,000 mm 0,0 UV-I 0 W/m 3,3 C 3,0 C 12,9 km/h (3 Bft) 98,00 %
12.12.2016 21:06 4,6 C 91 % 1026,5 hPa 0,0 l/m 8,5 km/h (2 Bft) W-SW 248 0 min 0,000 mm 0,0 UV-I 0 W/m 3,3 C 2,8 C 12,9 km/h (3 Bft) 92,68 %
12.12.2016 21:08 4,6 C 91 % 1026,6 hPa 0,0 l/m 9,3 km/h (2 Bft) W-SW 245 0 min 0,000 mm 0,0 UV-I 0 W/m 3,3 C 2,1 C 14,5 km/h (3 Bft) 96,23 %
12.12.2016 21:10 4,6 C 91 % 1026,6 hPa 0,0 l/m 7,6 km/h (2 Bft) W-SW 242 0 min 0,000 mm 0,0 UV-I 0 W/m 3,3 C 3,5 C 11,3 km/h (2 Bft) 95,45 %
12.12.2016 21:12 4,6 C 91 % 1026,6 hPa 0,0 l/m 7,3 km/h (2 Bft) W-SW 241 0 min 0,000 mm 0,0 UV-I 0 W/m 3,3 C 3,8 C 14,5 km/h (3 Bft) 93,62 %
12.12.2016 21:14 4,6 C 91 % 1026,6 hPa 0,0 l/m 7,6 km/h (2 Bft) W 259 0 min 0,000 mm 0,0 UV-I 0 W/m 3,3 C 3,5 C 14,5 km/h (3 Bft) 98,00 %
12.12.2016 21:16 4,6 C 91 % 1026,6 hPa 0,0 l/m 9,1 km/h (2 Bft) W-SW 242 0 min 0,000 mm 0,0 UV-I 0 W/m 3,3 C 2,3 C 12,9 km/h (3 Bft) 97,56 %
12.12.2016 21:18 4,6 C 91 % 1026,6 hPa 0,0 l/m 8,3 km/h (2 Bft) W-SW 244 0 min 0,000 mm 0,0 UV-I 0 W/m 3,3 C 2,9 C 12,9 km/h (3 Bft) 98,00 %
12.12.2016 21:20 4,6 C 91 % 1026,6 hPa 0,0 l/m 7,8 km/h (2 Bft) SW 234 0 min 0,000 mm 0,0 UV-I 0 W/m 3,3 C 3,4 C 12,9 km/h (3 Bft) 95,24 %
12.12.2016 21:22 4,6 C 91 % 1026,6 hPa 0,0 l/m 8,3 km/h (2 Bft) SW 229 0 min 0,000 mm 0,0 UV-I 0 W/m 3,3 C 2,9 C 12,9 km/h (3 Bft) 94,55 %
12.12.2016 21:24 4,6 C 91 % 1026,7 hPa 0,0 l/m 9,8 km/h (2 Bft) SW 236 0 min 0,000 mm 0,0 UV-I 0 W/m 3,3 C 1,8 C 17,7 km/h (3 Bft) 100,00 %
12.12.2016 21:26 4,6 C 91 % 1026,7 hPa 0,0 l/m 8,0 km/h (2 Bft) SW 229 0 min 0,000 mm 0,0 UV-I 0 W/m 3,3 C 3,2 C 11,3 km/h (2 Bft) 96,23 %
12.12.2016 21:28 4,6 C 91 % 1026,7 hPa 0,0 l/m 8,2 km/h (2 Bft) SW 221 0 min 0,000 mm 0,0 UV-I 0 W/m 3,3 C 3,0 C 12,9 km/h (3 Bft) 97,87 %
12.12.2016 21:30 4,6 C 91 % 1026,6 hPa 0,0 l/m 6,7 km/h (2 Bft) SW 234 0 min 0,000 mm 0,0 UV-I 0 W/m 3,3 C 4,3 C 12,9 km/h (3 Bft) 100,00 %
12.12.2016 21:32 4,6 C 91 % 1026,6 hPa 0,0 l/m 7,5 km/h (2 Bft) SW 217 0 min 0,000 mm 0,0 UV-I 0 W/m 3,3 C 3,6 C 11,3 km/h (2 Bft) 97,73 %
12.12.2016 21:34 4,6 C 91 % 1026,6 hPa 0,0 l/m 8,2 km/h (2 Bft) SW 236 0 min 0,000 mm 0,0 UV-I 0 W/m 3,3 C 3,0 C 12,9 km/h (3 Bft) 100,00 %
12.12.2016 21:36 4,6 C 91 % 1026,6 hPa 0,0 l/m 8,8 km/h (2 Bft) W-SW 250 0 min 0,000 mm 0,0 UV-I 0 W/m 3,3 C 2,5 C 16,1 km/h (3 Bft) 100,00 %
12.12.2016 21:38 4,5 C 91 % 1026,6 hPa 0,0 l/m 11,6 km/h (2 Bft) SW 219 0 min 0,000 mm 0,0 UV-I 0 W/m 3,2 C 0,4 C 16,1 km/h (3 Bft) 97,56 %
12.12.2016 21:40 4,5 C 91 % 1026,5 hPa 0,0 l/m 9,4 km/h (2 Bft) SW 234 0 min 0,000 mm 0,0 UV-I 0 W/m 3,2 C 2,0 C 12,9 km/h (3 Bft) 100,00 %
12.12.2016 21:42 4,5 C 91 % 1026,5 hPa 0,0 l/m 8,6 km/h (2 Bft) S-SW 208 0 min 0,000 mm 0,0 UV-I 0 W/m 3,2 C 2,6 C 16,1 km/h (3 Bft) 100,00 %
12.12.2016 21:44 4,5 C 91 % 1026,5 hPa 0,0 l/m 9,8 km/h (2 Bft) W-SW 237 0 min 0,000 mm 0,0 UV-I 0 W/m 3,2 C 1,7 C 17,7 km/h (3 Bft) 97,14 %
12.12.2016 21:46 4,5 C 91 % 1026,5 hPa 0,0 l/m 12,0 km/h (2 Bft) SW 233 0 min 0,000 mm 0,0 UV-I 0 W/m 3,2 C 0,2 C 19,3 km/h (3 Bft) 100,00 %
12.12.2016 21:48 4,5 C 91 % 1026,5 hPa 0,0 l/m 11,1 km/h (2 Bft) SW 230 0 min 0,000 mm 0,0 UV-I 0 W/m 3,2 C 0,8 C 17,7 km/h (3 Bft) 100,00 %
12.12.2016 21:50 4,5 C 91 % 1026,6 hPa 0,0 l/m 11,2 km/h (2 Bft) SW 233 0 min 0,000 mm 0,0 UV-I 0 W/m 3,2 C 0,7 C 17,7 km/h (3 Bft) 98,28 %
12.12.2016 21:52 4,5 C 91 % 1026,6 hPa 0,0 l/m 11,7 km/h (2 Bft) SW 219 0 min 0,000 mm 0,0 UV-I 0 W/m 3,2 C 0,4 C 19,3 km/h (3 Bft) 97,73 %
12.12.2016 21:54 4,5 C 91 % 1026,6 hPa 0,0 l/m 12,0 km/h (2 Bft) SW 229 0 min 0,000 mm 0,0 UV-I 0 W/m 3,2 C 0,2 C 20,9 km/h (4 Bft) 100,00 %
12.12.2016 21:56 4,4 C 92 % 1026,7 hPa 0,0 l/m 12,5 km/h (3 Bft) SW 217 0 min 0,000 mm 0,0 UV-I 0 W/m 3,2 C -0,2 C 16,1 km/h (3 Bft) 98,00 %
12.12.2016 21:58 4,4 C 92 % 1026,7 hPa 0,0 l/m 12,2 km/h (2 Bft) SW 231 0 min 0,000 mm 0,0 UV-I 0 W/m 3,2 C -0,1 C 17,7 km/h (3 Bft) 100,00 %
12.12.2016 22:00 4,4 C 92 % 1026,8 hPa 0,0 l/m 13,2 km/h (3 Bft) SW 234 0 min 0,000 mm 0,0 UV-I 0 W/m 3,2 C -0,7 C 17,7 km/h (3 Bft) 100,00 %
12.12.2016 22:02 4,4 C 92 % 1026,8 hPa 0,0 l/m 11,8 km/h (2 Bft) S-SW 210 0 min 0,000 mm 0,0 UV-I 0 W/m 3,2 C 0,2 C 17,7 km/h (3 Bft) 100,00 %
12.12.2016 22:04 4,4 C 92 % 1026,9 hPa 0,0 l/m 11,5 km/h (2 Bft) W-SW 258 0 min 0,000 mm 0,0 UV-I 0 W/m 3,2 C 0,4 C 19,3 km/h (3 Bft) 97,62 %
12.12.2016 22:06 4,4 C 92 % 1026,9 hPa 0,0 l/m 12,8 km/h (3 Bft) SW 228 0 min 0,000 mm 0,0 UV-I 0 W/m 3,2 C -0,4 C 19,3 km/h (3 Bft) 98,08 %
12.12.2016 22:08 4,4 C 92 % 1027,0 hPa 0,0 l/m 9,2 km/h (2 Bft) SW 235 0 min 0,000 mm 0,0 UV-I 0 W/m 3,2 C 2,0 C 14,5 km/h (3 Bft) 97,73 %
12.12.2016 22:10 4,4 C 92 % 1027,0 hPa 0,0 l/m 7,4 km/h (2 Bft) S-SW 202 0 min 0,000 mm 0,0 UV-I 0 W/m 3,2 C 3,5 C 14,5 km/h (3 Bft) 100,00 %
12.12.2016 22:12 4,4 C 92 % 1027,0 hPa 0,0 l/m 8,8 km/h (2 Bft) SW 221 0 min 0,000 mm 0,0 UV-I 0 W/m 3,2 C 2,3 C 14,5 km/h (3 Bft) 100,00 %
12.12.2016 22:14 4,4 C 92 % 1027,0 hPa 0,0 l/m 9,2 km/h (2 Bft) SW 224 0 min 0,000 mm 0,0 UV-I 0 W/m 3,2 C 2,0 C 16,1 km/h (3 Bft) 100,00 %
12.12.2016 22:16 4,4 C 92 % 1027,0 hPa 0,0 l/m 8,7 km/h (2 Bft) SW 215 0 min 0,000 mm 0,0 UV-I 0 W/m 3,2 C 2,4 C 12,9 km/h (3 Bft) 100,00 %
12.12.2016 22:18 4,4 C 92 % 1027,0 hPa 0,0 l/m 7,6 km/h (2 Bft) SW 219 0 min 0,000 mm 0,0 UV-I 0 W/m 3,2 C 3,3 C 11,3 km/h (2 Bft) 97,56 %
12.12.2016 22:20 4,4 C 92 % 1027,0 hPa 0,0 l/m 7,9 km/h (2 Bft) W-SW 242 0 min 0,000 mm 0,0 UV-I 0 W/m 3,2 C 3,1 C 12,9 km/h (3 Bft) 100,00 %
12.12.2016 22:22 4,4 C 92 % 1027,1 hPa 0,0 l/m 9,3 km/h (2 Bft) SW 214 0 min 0,000 mm 0,0 UV-I 0 W/m 3,2 C 1,9 C 12,9 km/h (3 Bft) 100,00 %
12.12.2016 22:24 4,4 C 92 % 1027,1 hPa 0,0 l/m 9,4 km/h (2 Bft) SW 225 0 min 0,000 mm 0,0 UV-I 0 W/m 3,2 C 1,9 C 16,1 km/h (3 Bft) 100,00 %
12.12.2016 22:26 4,4 C 92 % 1027,2 hPa 0,0 l/m 9,0 km/h (2 Bft) W-SW 258 0 min 0,000 mm 0,0 UV-I 0 W/m 3,2 C 2,2 C 12,9 km/h (3 Bft) 100,00 %
12.12.2016 22:28 4,4 C 92 % 1027,2 hPa 0,0 l/m 9,1 km/h (2 Bft) SW 216 0 min 0,000 mm 0,0 UV-I 0 W/m 3,2 C 2,1 C 14,5 km/h (3 Bft) 97,30 %
12.12.2016 22:30 4,4 C 92 % 1027,2 hPa 0,0 l/m 9,9 km/h (2 Bft) W-SW 250 0 min 0,000 mm 0,0 UV-I 0 W/m 3,2 C 1,5 C 16,1 km/h (3 Bft) 100,00 %
12.12.2016 22:32 4,4 C 92 % 1027,3 hPa 0,0 l/m 11,1 km/h (2 Bft) SW 232 0 min 0,000 mm 0,0 UV-I 0 W/m 3,2 C 0,6 C 16,1 km/h (3 Bft) 100,00 %
12.12.2016 22:34 4,4 C 92 % 1027,3 hPa 0,0 l/m 7,4 km/h (2 Bft) SW 224 0 min 0,000 mm 0,0 UV-I 0 W/m 3,2 C 3,5 C 11,3 km/h (2 Bft) 98,00 %
12.12.2016 22:36 4,4 C 92 % 1027,3 hPa 0,0 l/m 10,8 km/h (2 Bft) SW 234 0 min 0,000 mm 0,0 UV-I 0 W/m 3,2 C 0,8 C 16,1 km/h (3 Bft) 100,00 %
12.12.2016 22:38 4,4 C 92 % 1027,3 hPa 0,0 l/m 10,4 km/h (2 Bft) SW 234 0 min 0,000 mm 0,0 UV-I 0 W/m 3,2 C 1,1 C 14,5 km/h (3 Bft) 100,00 %
12.12.2016 22:40 4,4 C 92 % 1027,3 hPa 0,0 l/m 11,0 km/h (2 Bft) S-SW 211 0 min 0,000 mm 0,0 UV-I 0 W/m 3,2 C 0,7 C 16,1 km/h (3 Bft) 100,00 %
12.12.2016 22:42 4,4 C 92 % 1027,3 hPa 0,0 l/m 11,5 km/h (2 Bft) W-SW 254 0 min 0,000 mm 0,0 UV-I 0 W/m 3,2 C 0,4 C 17,7 km/h (3 Bft) 100,00 %
12.12.2016 22:44 4,4 C 92 % 1027,3 hPa 0,0 l/m 9,0 km/h (2 Bft) W-SW 242 0 min 0,000 mm 0,0 UV-I 0 W/m 3,2 C 2,2 C 14,5 km/h (3 Bft) 100,00 %
12.12.2016 22:46 4,4 C 92 % 1027,4 hPa 0,0 l/m 7,8 km/h (2 Bft) W-SW 238 0 min 0,000 mm 0,0 UV-I 0 W/m 3,2 C 3,1 C 12,9 km/h (3 Bft) 100,00 %
12.12.2016 22:48 4,4 C 92 % 1027,4 hPa 0,0 l/m 8,6 km/h (2 Bft) W-SW 240 0 min 0,000 mm 0,0 UV-I 0 W/m 3,2 C 2,5 C 12,9 km/h (3 Bft) 100,00 %
12.12.2016 22:50 4,4 C 92 % 1027,4 hPa 0,0 l/m 10,0 km/h (2 Bft) W-SW 246 0 min 0,000 mm 0,0 UV-I 0 W/m 3,2 C 1,4 C 14,5 km/h (3 Bft) 100,00 %
12.12.2016 22:52 4,4 C 92 % 1027,5 hPa 0,0 l/m 7,7 km/h (2 Bft) SW 223 0 min 0,000 mm 0,0 UV-I 0 W/m 3,2 C 3,2 C 11,3 km/h (2 Bft) 100,00 %
12.12.2016 22:54 4,4 C 92 % 1027,6 hPa 0,0 l/m 6,0 km/h (2 Bft) W-SW 250 0 min 0,000 mm 0,0 UV-I 0 W/m 3,2 C 4,4 C 8,0 km/h (2 Bft) 100,00 %
12.12.2016 22:56 4,4 C 92 % 1027,6 hPa 0,0 l/m 4,7 km/h (1 Bft) W-SW 250 0 min 0,000 mm 0,0 UV-I 0 W/m 3,2 C 4,4 C 6,4 km/h (2 Bft) 100,00 %
12.12.2016 22:58 4,4 C 92 % 1027,5 hPa 0,0 l/m 5,5 km/h (1 Bft) W-SW 238 0 min 0,000 mm 0,0 UV-I 0 W/m 3,2 C 4,4 C 8,0 km/h (2 Bft) 98,00 %
12.12.2016 23:00 4,4 C 92 % 1027,6 hPa 0,0 l/m 4,6 km/h (1 Bft) SW 221 0 min 0,000 mm 0,0 UV-I 0 W/m 3,2 C 4,4 C 6,4 km/h (2 Bft) 97,37 %
12.12.2016 23:02 4,4 C 92 % 1027,6 hPa 0,0 l/m 4,3 km/h (1 Bft) W-SW 250 0 min 0,000 mm 0,0 UV-I 0 W/m 3,2 C 4,4 C 6,4 km/h (2 Bft) 98,00 %
12.12.2016 23:04 4,4 C 92 % 1027,6 hPa 0,0 l/m 5,2 km/h (1 Bft) W-SW 238 0 min 0,000 mm 0,0 UV-I 0 W/m 3,2 C 4,4 C 6,4 km/h (2 Bft) 98,00 %
12.12.2016 23:06 4,4 C 92 % 1027,6 hPa 0,0 l/m 7,9 km/h (2 Bft) SW 221 0 min 0,000 mm 0,0 UV-I 0 W/m 3,2 C 3,1 C 11,3 km/h (2 Bft) 97,56 %
12.12.2016 23:08 4,3 C 92 % 1027,6 hPa 0,0 l/m 8,0 km/h (2 Bft) SW 217 0 min 0,000 mm 0,0 UV-I 0 W/m 3,1 C 2,9 C 11,3 km/h (2 Bft) 96,43 %
12.12.2016 23:10 4,3 C 92 % 1027,6 hPa 0,0 l/m 7,1 km/h (2 Bft) SW 234 0 min 0,000 mm 0,0 UV-I 0 W/m 3,1 C 3,7 C 11,3 km/h (2 Bft) 97,87 %
12.12.2016 23:12 4,3 C 91 % 1027,6 hPa 0,0 l/m 7,0 km/h (2 Bft) W-SW 238 0 min 0,000 mm 0,0 UV-I 0 W/m 3,0 C 3,8 C 11,3 km/h (2 Bft) 95,74 %
12.12.2016 23:14 4,3 C 92 % 1027,6 hPa 0,0 l/m 9,9 km/h (2 Bft) SW 221 0 min 0,000 mm 0,0 UV-I 0 W/m 3,1 C 1,4 C 14,5 km/h (3 Bft) 97,56 %
12.12.2016 23:16 4,3 C 91 % 1027,6 hPa 0,0 l/m 6,8 km/h (2 Bft) SW 219 0 min 0,000 mm 0,0 UV-I 0 W/m 3,0 C 3,9 C 11,3 km/h (2 Bft) 98,11 %
12.12.2016 23:18 4,3 C 91 % 1027,5 hPa 0,0 l/m 8,3 km/h (2 Bft) SW 218 0 min 0,000 mm 0,0 UV-I 0 W/m 3,0 C 2,6 C 12,9 km/h (3 Bft) 97,56 %
12.12.2016 23:20 4,3 C 91 % 1027,6 hPa 0,0 l/m 7,0 km/h (2 Bft) W-SW 250 0 min 0,000 mm 0,0 UV-I 0 W/m 3,0 C 3,8 C 11,3 km/h (2 Bft) 98,00 %
12.12.2016 23:22 4,3 C 91 % 1027,6 hPa 0,0 l/m 6,8 km/h (2 Bft) W-SW 255 0 min 0,000 mm 0,0 UV-I 0 W/m 3,0 C 3,9 C 11,3 km/h (2 Bft) 97,62 %
12.12.2016 23:24 4,3 C 91 % 1027,5 hPa 0,0 l/m 5,8 km/h (2 Bft) W 261 0 min 0,000 mm 0,0 UV-I 0 W/m 3,0 C 4,3 C 9,7 km/h (2 Bft) 98,00 %
12.12.2016 23:26 4,3 C 91 % 1027,5 hPa 0,0 l/m 7,4 km/h (2 Bft) W-SW 237 0 min 0,000 mm 0,0 UV-I 0 W/m 3,0 C 3,4 C 11,3 km/h (2 Bft) 93,62 %
12.12.2016 23:28 4,3 C 91 % 1027,5 hPa 0,0 l/m 5,4 km/h (1 Bft) W-SW 244 0 min 0,000 mm 0,0 UV-I 0 W/m 3,0 C 4,3 C 8,0 km/h (2 Bft) 96,23 %
12.12.2016 23:30 4,3 C 91 % 1027,5 hPa 0,0 l/m 7,1 km/h (2 Bft) W-SW 254 0 min 0,000 mm 0,0 UV-I 0 W/m 3,0 C 3,7 C 11,3 km/h (2 Bft) 94,74 %
12.12.2016 23:32 4,3 C 91 % 1027,5 hPa 0,0 l/m 7,8 km/h (2 Bft) W-SW 250 0 min 0,000 mm 0,0 UV-I 0 W/m 3,0 C 3,0 C 11,3 km/h (2 Bft) 98,21 %
12.12.2016 23:34 4,3 C 91 % 1027,5 hPa 0,0 l/m 7,8 km/h (2 Bft) SW 229 0 min 0,000 mm 0,0 UV-I 0 W/m 3,0 C 3,0 C 12,9 km/h (3 Bft) 100,00 %
12.12.2016 23:36 4,3 C 91 % 1027,5 hPa 0,0 l/m 8,3 km/h (2 Bft) W-SW 242 0 min 0,000 mm 0,0 UV-I 0 W/m 3,0 C 2,6 C 12,9 km/h (3 Bft) 98,11 %
12.12.2016 23:38 4,3 C 91 % 1027,5 hPa 0,0 l/m 6,7 km/h (2 Bft) SW 229 0 min 0,000 mm 0,0 UV-I 0 W/m 3,0 C 4,0 C 11,3 km/h (2 Bft) 100,00 %
12.12.2016 23:40 4,3 C 91 % 1027,5 hPa 0,0 l/m 6,3 km/h (2 Bft) W-NW 296 0 min 0,000 mm 0,0 UV-I 0 W/m 3,0 C 4,3 C 9,7 km/h (2 Bft) 95,74 %
12.12.2016 23:42 4,3 C 91 % 1027,4 hPa 0,0 l/m 7,7 km/h (2 Bft) W 261 0 min 0,000 mm 0,0 UV-I 0 W/m 3,0 C 3,1 C 16,1 km/h (3 Bft) 100,00 %
12.12.2016 23:44 4,3 C 91 % 1027,4 hPa 0,0 l/m 11,0 km/h (2 Bft) W-SW 254 0 min 0,000 mm 0,0 UV-I 0 W/m 3,0 C 0,6 C 14,5 km/h (3 Bft) 97,73 %
12.12.2016 23:46 4,3 C 91 % 1027,4 hPa 0,0 l/m 9,0 km/h (2 Bft) W-SW 257 0 min 0,000 mm 0,0 UV-I 0 W/m 3,0 C 2,1 C 12,9 km/h (3 Bft) 100,00 %
12.12.2016 23:48 4,3 C 91 % 1027,4 hPa 0,0 l/m 9,8 km/h (2 Bft) W 263 0 min 0,000 mm 0,0 UV-I 0 W/m 3,0 C 1,4 C 16,1 km/h (3 Bft) 100,00 %
12.12.2016 23:50 4,3 C 91 % 1027,4 hPa 0,0 l/m 7,9 km/h (2 Bft) W-SW 252 0 min 0,000 mm 0,0 UV-I 0 W/m 3,0 C 3,0 C 12,9 km/h (3 Bft) 100,00 %
12.12.2016 23:52 4,3 C 91 % 1027,4 hPa 0,0 l/m 7,6 km/h (2 Bft) SW 236 0 min 0,000 mm 0,0 UV-I 0 W/m 3,0 C 3,2 C 14,5 km/h (3 Bft) 100,00 %
12.12.2016 23:54 4,3 C 91 % 1027,4 hPa 0,0 l/m 7,3 km/h (2 Bft) W-SW 244 0 min 0,000 mm 0,0 UV-I 0 W/m 3,0 C 3,5 C 11,3 km/h (2 Bft) 100,00 %
12.12.2016 23:56 4,3 C 91 % 1027,3 hPa 0,0 l/m 10,9 km/h (2 Bft) W-SW 254 0 min 0,000 mm 0,0 UV-I 0 W/m 3,0 C 0,7 C 16,1 km/h (3 Bft) 100,00 %
12.12.2016 23:58 4,3 C 91 % 1027,3 hPa 0,0 l/m 9,3 km/h (2 Bft) W-SW 238 0 min 0,000 mm 0,0 UV-I 0 W/m 3,0 C 1,8 C 12,9 km/h (3 Bft) 100,00 %
_ Min-Zeit 05:42 00:00 04:20 - 23:02 - - - - - - 05:06 06:58 22:56 00:12
Minimum _ 3,3 C 81 % 1020,2 hPa - 4,3 km/h (1 Bft) - - - - - - 2,4 C -6,9 C 6,4 km/h (2 Bft) 92,68 %
_ Max-Zeit 00:00 05:10 22:54 00:58 12:24 - - 14:52 13:00 00:00 14:54 14:56 22:54 00:56 00:16
Maximum _ 5,9 C 94 % 1027,6 hPa 0,2 l/m 27,8 km/h
W-SW (4 Bft)
- - 2 min 0,051 mm 0,0 UV-I 109 W/m 4,1 C 4,4 C 41,8 km/h
W-SW (6 Bft)
100,00 %
Durchschnitt _ 4,5 C 91 % 1023,3 hPa #2,4 l/m 15,5 km/h (3 Bft) W-SW - #26 min. #0,356 mm 0,0 UV-I 37 W/m 3,2 C -1,4 C 23,4 km/h (4 Bft) 98,76 %